GW2233 Weather Reports


Display with metric or nautical units.
time (UTC)temp
F
wind
direction
speed
MPH
gust
MPH
rain 1hr
in
rain 24hr
in
rain mn
in
humidity
%
barometer
mb
20260506175803 67 252 1.0 7.0 0.00 0.01 0.00 66 1004.5
20260506175704 67 255 2.0 7.0 0.00 0.01 0.00 63 1004.5
20260506175604 67 255 2.0 7.0 0.00 0.01 0.00 63 1004.5
20260506175503 67 255 2.0 7.0 0.00 0.01 0.00 62 1004.5
20260506175404 67 256 2.0 7.0 0.00 0.01 0.00 64 1004.6
20260506175306 67 254 2.0 7.0 0.00 0.01 0.00 64 1004.4
20260506175204 67 253 2.0 7.0 0.00 0.01 0.00 63 1004.5
20260506175105 67 252 2.0 7.0 0.00 0.01 0.00 62 1004.6
20260506175003 67 252 2.0 8.0 0.00 0.01 0.00 62 1004.4
20260506174903 67 251 2.0 8.0 0.00 0.01 0.00 62 1004.5
20260506174820 68 250 2.0 8.0 0.00 0.01 0.00 62 1004.5
20260506174803 68 250 2.0 8.0 0.00 0.01 0.00 62 1004.3
20260506174704 68 249 2.0 8.0 0.00 0.01 0.00 60 1004.4
20260506174504 68 247 2.0 8.0 0.00 0.01 0.00 61 1004.4
20260506174404 68 248 2.0 8.0 0.00 0.01 0.00 61 1004.5
20260506174309 68 250 2.0 8.0 0.00 0.01 0.00 61 1004.4
20260506174203 68 252 2.0 8.0 0.00 0.01 0.00 61 1004.3
20260506174103 68 256 2.0 8.0 0.00 0.01 0.00 59 1004.4
20260506174003 68 256 2.0 8.0 0.00 0.01 0.00 59 1004.3
20260506173919 68 256 2.0 8.0 0.00 0.01 0.00 59 1004.3
20260506173903 69 257 2.0 8.0 0.00 0.01 0.00 60 1004.5
20260506173803 69 260 2.0 4.0 0.00 0.01 0.00 59 1004.3
20260506173604 69 263 2.0 6.0 0.00 0.01 0.00 59 1004.4
20260506173403 69 266 3.0 6.0 0.00 0.01 0.00 58 1004.3
20260506173304 69 265 3.0 7.0 0.00 0.01 0.00 57 1004.4
20260506173204 69 265 3.0 7.0 0.00 0.01 0.00 57 1004.3
20260506173105 69 266 3.0 7.0 0.00 0.01 0.00 56 1004.3
20260506173003 69 267 3.0 7.0 0.00 0.01 0.00 57 1004.2
20260506172917 69 267 3.0 7.0 0.00 0.01 0.00 56 1004.2
20260506172903 69 268 3.0 7.0 0.00 0.01 0.00 56 1004.3
20260506172804 69 268 3.0 7.0 0.00 0.01 0.00 56 1004.4
20260506172603 70 268 3.0 7.0 0.00 0.01 0.00 55 1004.2
20260506172504 70 269 3.0 7.0 0.00 0.01 0.00 56 1004.3
20260506172403 70 270 3.0 7.0 0.00 0.01 0.00 55 1004.3
20260506172307 70 271 3.0 7.0 0.00 0.01 0.00 55 1004.3
20260506172219 70 272 3.0 7.0 0.00 0.01 0.00 55 1004.3
20260506172203 70 272 3.0 7.0 0.00 0.01 0.00 55 1004.2
20260506172105 70 273 3.0 6.0 0.00 0.01 0.00 55 1004.2
20260506171903 70 271 3.0 6.0 0.00 0.01 0.00 54 1004.2
20260506171805 70 272 3.0 6.0 0.00 0.01 0.00 54 1004.1
20260506171705 70 272 3.0 7.0 0.00 0.01 0.00 54 1004.3
20260506171604 70 272 3.0 7.0 0.00 0.01 0.00 54 1004.2
20260506171503 71 270 3.0 7.0 0.00 0.01 0.00 54 1004.1
20260506171404 71 270 4.0 7.0 0.00 0.01 0.00 54 1004.2
20260506171304 71 268 3.0 7.0 0.00 0.01 0.00 54 1004.3
20260506171203 71 268 3.0 7.0 0.00 0.01 0.00 53 1004.0
20260506171103 71 267 3.0 7.0 0.00 0.01 0.00 53 1004.3
20260506171003 71 266 3.0 7.0 0.00 0.01 0.00 53 1004.1
20260506170917 71 267 3.0 7.0 0.00 0.01 0.00 53 1004.1
20260506170903 71 268 3.0 7.0 0.00 0.01 0.00 53 1004.2
20260506170804 71 270 3.0 8.0 0.00 0.01 0.00 53 1003.9
20260506170603 71 273 3.0 8.0 0.00 0.01 0.00 52 1004.2
20260506170504 71 274 4.0 10.0 0.00 0.01 0.00 53 1004.0
20260506170403 71 271 4.0 13.0 0.00 0.01 0.00 52 1004.1
20260506170317 71 271 4.0 13.0 0.00 0.01 0.00 52 1004.0
20260506170304 71 272 4.0 13.0 0.00 0.01 0.00 52 1004.0
20260506170204 72 273 5.0 13.0 0.00 0.01 0.00 52 1004.0
20260506170004 72 274 5.0 13.0 0.00 0.01 0.00 52 1003.9
20260506165903 72 273 6.0 13.0 0.00 0.01 0.00 51 1004.1
20260506165804 72 272 6.0 13.0 0.00 0.01 0.00 51 1004.1
20260506165703 72 269 6.0 13.0 0.00 0.01 0.00 51 1004.0
20260506165604 72 269 6.0 13.0 0.00 0.01 0.00 50 1003.9
20260506165503 72 268 6.0 13.0 0.00 0.01 0.00 51 1004.0
20260506165403 72 269 5.0 13.0 0.00 0.01 0.00 50 1004.1
20260506165305 72 269 5.0 13.0 0.00 0.01 0.00 50 1004.0
20260506165203 72 267 5.0 13.0 0.00 0.01 0.00 50 1003.8
20260506165104 72 268 5.0 13.0 0.00 0.01 0.00 50 1004.0
20260506165018 72 266 5.0 13.0 0.00 0.01 0.00 49 1004.0
20260506165003 72 265 5.0 13.0 0.00 0.01 0.00 49 1004.0
20260506164903 72 264 4.0 13.0 0.00 0.01 0.00 49 1004.0
20260506164718 73 272 4.0 13.0 0.00 0.01 0.00 49 1004.0
20260506164704 73 273 5.0 13.0 0.00 0.01 0.00 49 1004.1
20260506164605 73 270 5.0 13.0 0.00 0.01 0.00 49 1003.9
20260506164519 73 271 5.0 13.0 0.00 0.01 0.00 48 1003.9
20260506164403 73 269 5.0 13.0 0.00 0.01 0.00 48 1004.0
20260506164203 73 268 6.0 14.0 0.00 0.01 0.00 48 1004.0
20260506164103 73 266 6.0 14.0 0.00 0.01 0.00 48 1003.9
20260506164004 73 268 7.0 14.0 0.00 0.01 0.00 48 1003.9
20260506163904 73 267 7.0 14.0 0.00 0.01 0.00 48 1003.9
20260506163804 73 265 7.0 21.0 0.00 0.01 0.00 47 1003.7
20260506163704 73 262 7.0 21.0 0.00 0.01 0.00 47 1003.9
20260506163604 73 265 7.0 21.0 0.00 0.01 0.00 47 1004.1
20260506163504 73 264 7.0 21.0 0.00 0.01 0.00 48 1003.8
20260506163403 73 265 8.0 21.0 0.00 0.01 0.00 48 1003.9
20260506163319 73 266 8.0 21.0 0.00 0.01 0.00 47 1003.9
20260506163303 73 267 8.0 21.0 0.00 0.01 0.00 47 1004.0
20260506163204 73 268 8.0 21.0 0.00 0.01 0.00 47 1003.9
20260506163019 73 268 7.0 21.0 0.00 0.01 0.00 47 1003.9
20260506163004 73 268 7.0 21.0 0.00 0.01 0.00 47 1003.9
20260506162903 73 270 8.0 21.0 0.00 0.01 0.00 47 1003.9
20260506162704 74 270 8.0 21.0 0.00 0.01 0.00 47 1003.8
20260506162617 74 267 7.0 17.0 0.00 0.01 0.00 47 1003.8
20260506162603 74 268 7.0 17.0 0.00 0.01 0.00 47 1003.9
20260506162503 74 271 8.0 17.0 0.00 0.01 0.00 47 1004.0
20260506162307 74 268 7.0 17.0 0.00 0.01 0.00 46 1003.8
20260506162203 74 268 7.0 17.0 0.00 0.01 0.00 45 1004.0
20260506162104 74 268 7.0 17.0 0.00 0.01 0.00 46 1003.9
20260506162003 74 269 7.0 17.0 0.00 0.01 0.00 45 1003.7
20260506161904 74 268 7.0 17.0 0.00 0.01 0.00 45 1003.9
20260506161804 74 268 7.0 17.0 0.00 0.01 0.00 45 1003.9
20260506161705 74 267 7.0 17.0 0.00 0.01 0.00 45 1003.7
20260506161604 74 265 7.0 17.0 0.00 0.01 0.00 45 1003.6
20260506161517 74 262 6.0 16.0 0.00 0.01 0.00 46 1003.6
20260506161504 74 262 6.0 16.0 0.00 0.01 0.00 46 1003.7
20260506161403 74 263 7.0 17.0 0.00 0.01 0.00 45 1003.6
20260506161204 74 262 7.0 22.0 0.00 0.01 0.00 44 1003.7
20260506161104 74 261 7.0 22.0 0.00 0.01 0.00 44 1003.8
20260506161004 74 260 8.0 22.0 0.00 0.01 0.00 44 1003.7
20260506160904 74 258 8.0 22.0 0.00 0.01 0.00 44 1003.7
20260506160804 74 257 8.0 22.0 0.00 0.01 0.00 45 1003.8
20260506160704 75 257 8.0 22.0 0.00 0.01 0.00 45 1003.8
20260506160604 75 260 9.0 22.0 0.00 0.01 0.00 44 1003.5
20260506160504 75 260 9.0 22.0 0.00 0.01 0.00 44 1003.6
20260506160403 75 260 9.0 22.0 0.00 0.01 0.00 44 1003.7
20260506160304 75 260 9.0 22.0 0.00 0.01 0.00 44 1003.6
20260506160205 75 261 9.0 22.0 0.00 0.01 0.00 43 1003.5
20260506160105 75 260 8.0 22.0 0.00 0.01 0.00 43 1003.7
20260506160016 76 260 8.0 21.0 0.00 0.01 0.00 42 1003.7
20260506160005 76 259 8.0 21.0 0.00 0.01 0.00 42 1003.7
20260506155904 76 262 8.0 21.0 0.00 0.01 0.00 42 1003.6
20260506155703 76 267 7.0 21.0 0.00 0.01 0.00 42 1003.6
20260506155605 76 266 6.0 21.0 0.00 0.01 0.00 43 1003.6
20260506155503 76 265 6.0 21.0 0.00 0.01 0.00 44 1003.6
20260506155404 76 266 6.0 21.0 0.00 0.01 0.00 43 1003.5
20260506155306 76 263 6.0 15.0 0.00 0.01 0.00 42 1003.5
20260506155205 76 263 6.0 15.0 0.00 0.01 0.00 42 1003.6
20260506155103 76 264 6.0 15.0 0.00 0.01 0.00 42 1003.6
20260506155004 76 262 5.0 14.0 0.00 0.01 0.00 43 1003.6
20260506154903 77 259 5.0 14.0 0.00 0.01 0.00 43 1003.7
20260506154819 77 259 5.0 16.0 0.00 0.01 0.00 43 1003.7
20260506154804 77 259 6.0 16.0 0.00 0.01 0.00 43 1003.6
20260506154704 76 253 6.0 16.0 0.00 0.01 0.00 42 1003.5
20260506154503 77 247 7.0 17.0 0.00 0.01 0.00 41 1003.6
20260506154404 77 242 7.0 17.0 0.00 0.01 0.00 42 1003.6
20260506154304 77 244 7.0 17.0 0.00 0.01 0.00 42 1003.6
20260506154204 77 242 7.0 17.0 0.00 0.01 0.00 41 1003.6
20260506154104 76 241 7.0 17.0 0.00 0.01 0.00 42 1003.5
20260506154003 76 242 7.0 17.0 0.00 0.01 0.00 42 1003.5
20260506153817 76 243 7.0 17.0 0.00 0.01 0.00 41 1003.5
20260506153804 76 242 7.0 17.0 0.00 0.01 0.00 41 1003.6
20260506153704 76 244 6.0 17.0 0.00 0.01 0.00 41 1003.4
20260506153517 76 248 5.0 17.0 0.00 0.01 0.00 41 1003.5
20260506153503 76 248 5.0 17.0 0.00 0.01 0.00 41 1003.8
20260506153419 76 253 5.0 17.0 0.00 0.01 0.00 41 1003.8
20260506153403 76 255 5.0 17.0 0.00 0.01 0.00 43 1003.4
20260506153104 76 255 4.0 13.0 0.00 0.01 0.00 42 1003.6
20260506153003 75 259 4.0 14.0 0.00 0.01 0.00 43 1003.5
20260506152904 75 263 4.0 14.0 0.00 0.01 0.00 43 1003.7
20260506152804 75 261 5.0 14.0 0.00 0.01 0.00 42 1003.4
20260506152704 75 263 5.0 14.0 0.00 0.01 0.00 43 1003.6
20260506152621 75 263 5.0 14.0 0.00 0.01 0.00 42 1003.6
20260506152604 75 264 5.0 15.0 0.00 0.01 0.00 42 1003.6
20260506152503 75 266 6.0 15.0 0.00 0.01 0.00 43 1003.6
20260506152320 75 265 6.0 17.0 0.00 0.01 0.00 43 1003.5
20260506152306 75 265 6.0 17.0 0.00 0.01 0.00 43 1003.6
20260506152203 75 264 6.0 17.0 0.00 0.01 0.00 44 1003.8
20260506152003 75 262 7.0 17.0 0.00 0.01 0.00 43 1003.5
20260506151903 75 260 6.0 17.0 0.00 0.01 0.00 43 1003.6
20260506151817 75 261 6.0 17.0 0.00 0.01 0.00 41 1003.6
20260506151803 75 262 6.0 17.0 0.00 0.01 0.00 41 1003.4
20260506151703 76 259 7.0 17.0 0.00 0.01 0.00 42 1003.6
20260506151521 76 258 7.0 17.0 0.00 0.01 0.00 41 1003.4
20260506151503 76 258 6.0 17.0 0.00 0.01 0.00 41 1003.4
20260506151403 76 258 6.0 17.0 0.00 0.01 0.00 41 1003.3
20260506151221 76 253 6.0 17.0 0.00 0.01 0.00 42 1003.3
20260506151204 76 253 6.0 17.0 0.00 0.01 0.00 42 1003.4
20260506151104 77 250 6.0 17.0 0.00 0.01 0.00 43 1003.3
20260506150903 77 248 7.0 17.0 0.00 0.01 0.00 41 1003.3
20260506150805 77 242 7.0 17.0 0.00 0.04 0.00 40 1003.4
20260506150703 77 241 7.0 16.0 0.00 0.07 0.00 40 1003.5
20260506150603 77 238 7.0 16.0 0.00 0.11 0.00 41 1003.4
20260506150504 77 237 7.0 16.0 0.00 0.14 0.00 41 1003.2
20260506150404 77 240 7.0 16.0 0.00 0.15 0.00 41 1003.5
20260506150305 77 242 7.0 16.0 0.00 0.15 0.00 41 1003.3
20260506150203 77 239 7.0 21.0 0.00 0.15 0.00 40 1003.3
20260506150104 77 238 7.0 21.0 0.00 0.15 0.00 40 1003.4
20260506150003 77 239 7.0 21.0 0.00 0.15 0.00 40 1003.2
20260506145918 77 239 7.0 21.0 0.00 0.15 0.00 40 1003.2
20260506145904 76 239 7.0 21.0 0.00 0.15 0.00 41 1003.2
20260506145803 76 244 7.0 21.0 0.00 0.15 0.00 41 1003.4
20260506145603 76 249 7.0 21.0 0.00 0.15 0.00 41 1003.4
20260506145504 76 249 7.0 21.0 0.00 0.15 0.00 41 1003.3
20260506145415 76 247 7.0 21.0 0.00 0.15 0.00 41 1003.3
20260506145103 76 254 8.0 21.0 0.00 0.15 0.00 40 1003.4
20260506145003 76 256 7.0 17.0 0.00 0.15 0.00 40 1003.3
20260506144904 76 258 7.0 17.0 0.00 0.15 0.00 39 1003.4
20260506144803 76 258 7.0 17.0 0.00 0.15 0.00 39 1003.4
20260506144703 76 257 7.0 17.0 0.00 0.15 0.00 38 1003.3
20260506144616 76 257 7.0 16.0 0.00 0.15 0.00 39 1003.2
20260506144603 76 255 7.0 16.0 0.00 0.15 0.00 39 1003.2
20260506144504 76 255 7.0 17.0 0.00 0.15 0.00 38 1003.3
20260506144303 76 257 8.0 18.0 0.00 0.15 0.00 38 1003.4
20260506144204 76 256 8.0 18.0 0.00 0.15 0.00 38 1003.3
20260506144104 76 257 8.0 18.0 0.00 0.15 0.00 37 1003.3
20260506144005 76 258 8.0 18.0 0.00 0.15 0.00 38 1003.2
20260506143905 77 257 8.0 18.0 0.00 0.15 0.00 38 1003.4
20260506143804 77 255 8.0 18.0 0.00 0.15 0.00 36 1003.2
20260506143704 77 251 8.0 18.0 0.00 0.15 0.00 36 1003.2
20260506143604 77 247 8.0 18.0 0.00 0.15 0.00 36 1003.2
20260506143517 77 245 8.0 18.0 0.00 0.15 0.00 36 1003.2
20260506143505 77 244 7.0 18.0 0.00 0.15 0.00 36 1003.2
20260506143404 77 241 7.0 18.0 0.00 0.15 0.00 36 1003.3
20260506143204 78 229 6.0 18.0 0.00 0.15 0.00 36 1003.3
20260506143104 78 223 5.0 16.0 0.00 0.15 0.00 36 1003.1
20260506143004 78 217 5.0 16.0 0.00 0.15 0.00 37 1003.1
20260506142917 78 215 6.0 16.0 0.00 0.15 0.00 36 1003.1
20260506142904 78 214 6.0 16.0 0.00 0.15 0.00 36 1003.1
20260506142805 78 215 6.0 16.0 0.00 0.15 0.00 36 1003.1
20260506142604 79 219 6.0 16.0 0.00 0.15 0.00 35 1003.2
20260506142505 79 220 6.0 16.0 0.00 0.15 0.00 34 1003.0
20260506142403 79 213 6.0 16.0 0.00 0.15 0.00 35 1002.9
20260506142306 79 212 7.0 16.0 0.00 0.15 0.00 36 1003.0
20260506142203 79 213 7.0 23.0 0.00 0.15 0.00 36 1002.9
20260506142103 79 218 7.0 23.0 0.00 0.15 0.00 34 1003.1
20260506142004 79 220 8.0 23.0 0.00 0.15 0.00 34 1003.0
20260506141903 79 218 7.0 23.0 0.00 0.15 0.00 35 1003.0
20260506141804 79 221 7.0 23.0 0.00 0.15 0.00 35 1002.9
20260506141705 79 224 8.0 23.0 0.00 0.15 0.00 34 1002.9
20260506141603 79 226 7.0 23.0 0.00 0.15 0.00 34 1003.1
20260506141504 79 227 7.0 23.0 0.00 0.15 0.00 36 1003.1
20260506141404 79 233 6.0 23.0 0.00 0.15 0.00 37 1002.8
20260506141303 79 236 6.0 23.0 0.00 0.15 0.00 34 1003.0
20260506141203 79 237 6.0 23.0 0.00 0.15 0.00 35 1003.1
20260506141103 79 234 5.0 23.0 0.00 0.15 0.00 37 1003.1
20260506141003 79 229 5.0 15.0 0.00 0.15 0.00 36 1002.9
20260506140904 79 233 5.0 15.0 0.00 0.15 0.00 36 1003.0
20260506140819 78 230 5.0 15.0 0.00 0.15 0.00 35 1003.0
20260506140804 78 227 5.0 15.0 0.00 0.15 0.00 35 1003.1
20260506140519 78 217 4.0 15.0 0.00 0.15 0.00 36 1003.0
20260506140503 78 218 4.0 16.0 0.00 0.15 0.00 36 1002.9
20260506140404 78 221 5.0 16.0 0.00 0.15 0.00 35 1002.9
20260506140205 78 213 5.0 16.0 0.00 0.15 0.00 36 1002.9
20260506140104 78 216 5.0 16.0 0.00 0.15 0.00 36 1003.0
20260506140004 78 222 5.0 16.0 0.00 0.15 0.00 34 1002.9
20260506135903 78 219 5.0 16.0 0.00 0.15 0.00 34 1003.0
20260506135803 78 216 5.0 16.0 0.00 0.15 0.00 33 1003.0
20260506135704 78 216 5.0 16.0 0.00 0.15 0.00 37 1002.9
20260506135603 78 214 5.0 16.0 0.00 0.15 0.00 34 1002.9
20260506135503 78 216 5.0 16.0 0.00 0.15 0.00 34 1002.9
20260506135404 79 209 5.0 16.0 0.00 0.15 0.00 35 1002.9
20260506135306 79 207 5.0 15.0 0.00 0.15 0.00 35 1003.0
20260506135204 79 205 6.0 15.0 0.00 0.15 0.00 34 1003.0
20260506135119 79 203 6.0 16.0 0.00 0.15 0.00 35 1003.0
20260506135103 79 201 6.0 16.0 0.00 0.15 0.00 35 1002.9
20260506135005 78 202 6.0 16.0 0.00 0.15 0.00 35 1002.9
20260506134804 78 211 7.0 16.0 0.00 0.15 0.00 35 1003.0
20260506134703 79 211 7.0 16.0 0.00 0.15 0.00 35 1003.0
20260506134603 79 214 7.0 16.0 0.00 0.15 0.00 35 1003.0
20260506134504 79 211 8.0 16.0 0.00 0.15 0.00 34 1002.9
20260506134405 79 216 7.0 16.0 0.00 0.15 0.00 34 1002.9
20260506134305 79 220 7.0 16.0 0.00 0.15 0.00 33 1002.9
20260506134204 79 225 7.0 16.0 0.00 0.15 0.00 36 1003.0
20260506134103 79 230 7.0 16.0 0.00 0.15 0.00 33 1002.7
20260506134003 79 230 6.0 16.0 0.00 0.15 0.00 34 1002.8
20260506133903 79 226 6.0 14.0 0.00 0.15 0.00 36 1002.8
20260506133821 79 226 6.0 14.0 0.00 0.15 0.00 36 1002.8
20260506133803 79 226 6.0 14.0 0.00 0.15 0.00 36 1002.9
20260506133704 79 227 5.0 14.0 0.00 0.15 0.00 34 1002.9
20260506133503 78 227 5.0 13.0 0.00 0.15 0.00 35 1003.0
20260506133404 78 222 5.0 13.0 0.00 0.15 0.00 37 1002.9
20260506133303 78 225 5.0 13.0 0.00 0.15 0.00 36 1002.8
20260506133204 77 229 5.0 15.0 0.00 0.15 0.00 36 1003.0
20260506133119 77 228 5.0 15.0 0.00 0.15 0.00 36 1003.0
20260506133104 77 228 5.0 15.0 0.00 0.15 0.00 36 1002.9
20260506133004 77 230 5.0 16.0 0.00 0.15 0.00 36 1002.9
20260506132819 77 240 5.0 19.0 0.00 0.15 0.00 37 1002.9
20260506132803 77 240 5.0 19.0 0.00 0.15 0.00 37 1003.0
20260506132717 77 245 6.0 19.0 0.00 0.15 0.00 35 1003.1
20260506132704 77 245 6.0 19.0 0.00 0.15 0.00 35 1003.1
20260506132519 77 250 7.0 19.0 0.00 0.15 0.00 35 1002.9
20260506132403 77 253 7.0 19.0 0.00 0.15 0.00 35 1003.2
20260506132203 77 250 7.0 19.0 0.00 0.15 0.00 37 1003.2
20260506132104 77 247 7.0 19.0 0.00 0.15 0.00 36 1003.1
20260506132003 77 245 7.0 19.0 0.00 0.15 0.00 39 1003.0
20260506131918 77 245 6.0 19.0 0.00 0.15 0.00 39 1002.9
20260506131904 77 246 6.0 19.0 0.00 0.15 0.00 39 1002.9
20260506131604 77 213 5.0 16.0 0.00 0.15 0.00 48 1003.2
20260506131505 77 200 4.0 16.0 0.00 0.15 0.00 49 1002.9
20260506131403 76 188 3.0 16.0 0.00 0.15 0.00 45 1002.7
20260506131317 75 182 3.0 16.0 0.00 0.15 0.00 38 1002.7
20260506131303 75 175 3.0 16.0 0.00 0.15 0.00 38 1002.9
20260506131204 75 155 2.0 16.0 0.00 0.15 0.00 43 1003.1
20260506131003 74 148 2.0 8.0 0.00 0.15 0.00 58 1003.0
20260506130916 74 139 1.0 6.0 0.00 0.15 0.00 58 1003.0
20260506130903 74 138 1.0 6.0 0.00 0.15 0.00 60 1003.1
20260506130804 74 162 1.0 6.0 0.00 0.15 0.00 60 1003.0
20260506130604 73 164 1.0 9.0 0.00 0.15 0.00 58 1003.2
20260506130503 73 166 2.0 10.0 0.00 0.15 0.00 58 1003.3
20260506130403 73 98 2.0 10.0 0.00 0.15 0.00 59 1003.3
20260506130304 73 60 3.0 10.0 0.00 0.15 0.00 60 1003.2
20260506130204 73 40 3.0 10.0 0.00 0.15 0.00 63 1003.4
20260506130104 72 29 3.0 10.0 0.00 0.15 0.00 63 1003.2
20260506130003 72 24 4.0 10.0 0.00 0.15 0.00 63 1003.3
20260506125903 72 20 4.0 10.0 0.00 0.15 0.00 63 1003.3
20260506125805 72 20 4.0 10.0 0.00 0.15 0.00 62 1003.3
20260506125704 72 16 4.0 10.0 0.00 0.15 0.00 63 1003.3
20260506125504 72 10 4.0 14.0 0.00 0.15 0.00 63 1003.2
20260506125403 72 19 4.0 14.0 0.00 0.15 0.00 62 1003.2
20260506125306 72 28 4.0 14.0 0.00 0.15 0.00 63 1003.2
20260506125204 72 39 4.0 14.0 0.00 0.15 0.00 63 1003.4
20260506125103 72 43 4.0 14.0 0.00 0.15 0.00 62 1003.4
20260506125004 72 36 4.0 14.0 0.00 0.15 0.00 62 1003.6
20260506124903 72 27 4.0 14.0 0.00 0.15 0.00 61 1003.7
20260506124804 72 34 4.0 14.0 0.00 0.15 0.00 62 1003.3
20260506124704 72 51 4.0 14.0 0.00 0.15 0.00 61 1003.4
20260506124615 72 63 4.0 14.0 0.00 0.15 0.00 62 1003.4
20260506124603 72 64 4.0 14.0 0.00 0.15 0.00 62 1003.2
20260506124518 72 66 4.0 14.0 0.00 0.15 0.00 61 1003.6
20260506124503 72 64 4.0 14.0 0.00 0.15 0.00 61 1003.6
20260506124203 73 61 4.0 11.0 0.00 0.15 0.00 62 1003.4
20260506124103 73 63 4.0 11.0 0.00 0.15 0.00 60 1003.2
20260506124003 73 71 4.0 11.0 0.00 0.15 0.00 60 1003.3
20260506123903 73 74 4.0 11.0 0.00 0.15 0.00 59 1003.4
20260506123803 73 77 4.0 10.0 0.00 0.15 0.00 60 1003.3
20260506123704 73 74 4.0 10.0 0.00 0.15 0.00 58 1003.4
20260506123603 73 71 4.0 10.0 0.00 0.15 0.00 59 1003.4
20260506123503 73 66 4.0 10.0 0.00 0.15 0.00 58 1003.4
20260506123404 73 58 4.0 10.0 0.00 0.15 0.00 58 1003.3
20260506123305 74 50 4.0 8.0 0.00 0.15 0.00 59 1003.2
20260506123204 74 44 3.0 8.0 0.00 0.15 0.00 59 1003.3
20260506123103 74 46 3.0 8.0 0.00 0.15 0.00 57 1003.3
20260506123003 74 39 3.0 8.0 0.00 0.15 0.00 58 1003.3
20260506122904 74 39 3.0 8.0 0.00 0.15 0.00 59 1003.3
20260506122803 74 36 3.0 11.0 0.00 0.15 0.00 58 1003.2
20260506122703 74 40 3.0 11.0 0.00 0.15 0.00 58 1003.4
20260506122605 74 39 3.0 11.0 0.00 0.15 0.00 56 1003.2
20260506122503 74 42 3.0 11.0 0.00 0.15 0.00 58 1003.5
20260506122417 74 45 3.0 11.0 0.00 0.15 0.00 58 1003.4
20260506122403 74 45 3.0 11.0 0.00 0.15 0.00 58 1003.4
20260506122305 74 45 3.0 11.0 0.00 0.15 0.00 57 1003.3
20260506122104 74 49 4.0 11.0 0.00 0.15 0.00 57 1003.4
20260506122019 74 50 4.0 11.0 0.00 0.15 0.00 57 1003.3
20260506122004 74 51 4.0 11.0 0.00 0.15 0.00 55 1003.3
20260506121904 75 57 4.0 11.0 0.00 0.15 0.00 57 1003.4
20260506121816 75 57 4.0 11.0 0.00 0.15 0.00 57 1003.4
20260506121704 75 61 4.0 11.0 0.00 0.15 0.00 54 1003.1
20260506121504 75 58 4.0 9.0 0.00 0.15 0.00 53 1003.3
20260506121404 75 53 3.0 9.0 0.00 0.15 0.00 53 1003.2
20260506121304 75 51 3.0 9.0 0.00 0.15 0.00 55 1003.3
20260506121204 75 44 3.0 9.0 0.00 0.15 0.00 54 1003.1
20260506121103 75 34 3.0 9.0 0.00 0.15 0.00 53 1003.3
20260506121003 75 33 3.0 9.0 0.00 0.15 0.00 54 1003.2
20260506120903 75 30 3.0 9.0 0.00 0.15 0.00 54 1003.1
20260506120804 75 26 3.0 8.0 0.00 0.15 0.00 54 1003.3
20260506120717 75 27 3.0 9.0 0.00 0.15 0.00 54 1003.3
20260506120704 75 28 3.0 9.0 0.00 0.15 0.00 54 1003.3
20260506120603 75 32 4.0 9.0 0.00 0.15 0.00 55 1003.3
20260506120518 75 40 4.0 9.0 0.00 0.15 0.00 55 1003.3
20260506120404 75 48 4.0 9.0 0.00 0.15 0.00 56 1003.3
20260506120218 75 51 4.0 10.0 0.00 0.15 0.00 55 1003.4
20260506120203 75 51 4.0 10.0 0.00 0.15 0.00 56 1003.3
20260506120103 75 58 4.0 10.0 0.00 0.15 0.00 56 1003.3
20260506115904 75 67 5.0 10.0 0.00 0.15 0.00 56 1003.5
20260506115820 75 64 5.0 10.0 0.00 0.15 0.00 55 1003.5
20260506115803 75 66 5.0 10.0 0.00 0.15 0.00 55 1003.5
20260506115704 75 63 5.0 10.0 0.00 0.15 0.00 56 1003.3
20260506115520 74 46 4.0 10.0 0.00 0.15 0.00 56 1003.7
20260506115503 74 44 4.0 10.0 0.00 0.15 0.00 56 1003.7
20260506115404 74 36 4.0 10.0 0.00 0.15 0.00 56 1003.5
20260506115204 75 35 4.0 10.0 0.00 0.15 0.00 55 1003.6
20260506115103 75 31 4.0 10.0 0.00 0.15 0.00 55 1003.3
20260506115004 75 29 3.0 9.0 0.00 0.15 0.00 53 1003.6
20260506114904 75 24 3.0 9.0 0.00 0.15 0.00 54 1003.4
20260506114804 74 24 3.0 8.0 0.00 0.15 0.00 51 1003.5
20260506114704 74 28 3.0 8.0 0.00 0.15 0.00 51 1003.5
20260506114619 74 35 3.0 8.0 0.00 0.15 0.00 51 1003.6
20260506114604 74 37 3.0 8.0 0.00 0.15 0.00 51 1003.6
20260506114504 74 47 2.0 7.0 0.00 0.15 0.00 55 1003.5
20260506114303 74 49 2.0 7.0 0.00 0.15 0.00 58 1003.5
20260506114218 74 48 2.0 7.0 0.00 0.15 0.00 56 1003.8
20260506114203 74 49 2.0 7.0 0.00 0.15 0.00 56 1003.8
20260506114120 74 51 2.0 7.0 0.00 0.15 0.00 54 1003.8
20260506114103 74 52 2.0 7.0 0.00 0.15 0.00 54 1003.8
20260506114019 74 51 2.0 7.0 0.00 0.15 0.00 54 1003.6
20260506113704 74 75 2.0 7.0 0.00 0.15 0.00 56 1003.7
20260506113603 74 91 2.0 7.0 0.00 0.15 0.00 50 1003.8
20260506113503 74 129 2.0 7.0 0.00 0.15 0.00 51 1003.9
20260506113404 75 152 2.0 8.0 0.00 0.15 0.00 52 1003.8
20260506113304 75 171 2.0 10.0 0.00 0.15 0.00 47 1003.9
20260506113204 75 169 3.0 10.0 0.00 0.15 0.00 46 1004.0
20260506113103 75 170 3.0 10.0 0.00 0.15 0.00 43 1003.9
20260506113004 75 166 3.0 10.0 0.00 0.15 0.00 43 1004.0
20260506112919 75 160 3.0 10.0 0.00 0.15 0.00 42 1004.0
20260506112904 75 155 3.0 10.0 0.00 0.15 0.00 42 1004.1
20260506112804 75 141 3.0 10.0 0.00 0.15 0.00 47 1004.0
20260506112603 75 112 4.0 10.0 0.00 0.15 0.00 45 1004.1
20260506112503 75 97 4.0 10.0 0.00 0.15 0.00 47 1004.2
20260506112403 75 90 5.0 10.0 0.00 0.15 0.00 50 1004.0
20260506112306 75 85 5.0 10.0 0.00 0.15 0.00 44 1004.0
20260506112204 75 83 4.0 10.0 0.00 0.15 0.00 55 1004.1
20260506112103 75 84 4.0 10.0 0.00 0.15 0.00 54 1004.1
20260506112003 75 85 4.0 10.0 0.00 0.15 0.00 54 1004.2
20260506111903 75 87 4.0 10.0 0.00 0.15 0.00 52 1004.0
20260506111804 75 88 4.0 10.0 0.00 0.15 0.00 56 1004.1
20260506111703 75 90 3.0 9.0 0.00 0.15 0.00 54 1004.3
20260506111604 75 95 3.0 9.0 0.00 0.15 0.00 52 1004.1
20260506111504 75 105 2.0 9.0 0.00 0.15 0.00 52 1004.2
20260506111403 75 110 2.0 8.0 0.00 0.15 0.00 49 1004.1
20260506111305 75 105 2.0 8.0 0.00 0.15 0.00 48 1004.2
20260506111203 75 100 2.0 7.0 0.00 0.15 0.00 49 1004.1
20260506111103 75 96 2.0 7.0 0.00 0.15 0.00 51 1004.2
20260506111005 75 85 2.0 6.0 0.00 0.15 0.00 51 1004.2
20260506110904 75 83 2.0 6.0 0.00 0.15 0.00 52 1004.2
20260506110804 74 85 2.0 6.0 0.00 0.15 0.00 48 1004.4
20260506110705 74 92 2.0 6.0 0.00 0.15 0.00 49 1004.1
20260506110604 74 101 2.0 6.0 0.00 0.15 0.00 49 1004.2
20260506110518 74 105 2.0 6.0 0.00 0.15 0.00 51 1004.2
20260506110503 74 108 2.0 6.0 0.00 0.15 0.00 51 1004.4
20260506110403 74 119 2.0 6.0 0.00 0.15 0.00 50 1004.3
20260506110203 74 147 2.0 6.0 0.00 0.15 0.00 52 1004.3
20260506110103 74 157 2.0 6.0 0.00 0.15 0.00 54 1004.3
20260506110004 74 171 2.0 6.0 0.00 0.15 0.00 52 1004.3
20260506105904 73 182 2.0 7.0 0.00 0.15 0.00 52 1004.3
20260506105803 73 178 2.0 7.0 0.00 0.15 0.00 52 1004.5
20260506105703 73 164 2.0 8.0 0.00 0.15 0.00 51 1004.2
20260506105604 73 152 3.0 8.0 0.00 0.15 0.00 51 1004.4
20260506105520 73 144 3.0 8.0 0.00 0.15 0.00 48 1004.4
20260506105504 73 141 3.0 8.0 0.00 0.15 0.00 48 1004.4
20260506105403 73 131 3.0 8.0 0.00 0.15 0.00 52 1004.4
20260506105317 73 125 3.0 8.0 0.00 0.15 0.00 54 1004.4
20260506105219 73 115 3.0 8.0 0.00 0.15 0.00 49 1004.4
20260506105203 73 113 3.0 8.0 0.00 0.15 0.00 49 1004.4
20260506104904 73 107 4.0 10.0 0.00 0.15 0.00 52 1004.6
20260506104804 73 103 4.0 10.0 0.00 0.15 0.00 50 1004.4
20260506104716 73 107 4.0 10.0 0.00 0.15 0.00 52 1004.5
20260506104703 73 107 4.0 10.0 0.00 0.15 0.00 52 1004.5
20260506104619 73 106 4.0 10.0 0.00 0.15 0.00 52 1004.5
20260506104604 73 106 4.0 10.0 0.00 0.15 0.00 52 1004.5
20260506104517 73 106 4.0 10.0 0.00 0.15 0.00 52 1004.5
20260506104203 73 112 4.0 10.0 0.00 0.15 0.00 53 1004.6
20260506104104 73 107 4.0 10.0 0.00 0.15 0.00 53 1004.6
20260506104004 73 103 4.0 10.0 0.00 0.15 0.00 52 1004.6
20260506103904 73 103 4.0 10.0 0.00 0.15 0.00 51 1004.6
20260506103804 72 105 4.0 10.0 0.00 0.15 0.00 51 1004.5
20260506103703 72 104 3.0 9.0 0.00 0.15 0.00 57 1004.6
20260506103603 72 108 3.0 8.0 0.00 0.15 0.00 57 1004.7
20260506103504 72 110 3.0 10.0 0.00 0.15 0.00 55 1004.7
20260506103404 72 117 4.0 10.0 0.00 0.15 0.00 54 1004.7
20260506103321 72 115 4.0 10.0 0.00 0.15 0.00 54 1004.7
20260506103303 72 114 4.0 10.0 0.00 0.15 0.00 54 1004.7
20260506103204 72 117 4.0 10.0 0.00 0.15 0.00 56 1004.8
20260506103004 72 128 3.0 10.0 0.00 0.15 0.00 56 1004.9
20260506102919 72 125 4.0 10.0 0.00 0.15 0.00 56 1004.9
20260506102903 72 123 4.0 10.0 0.00 0.15 0.00 57 1004.8
20260506102804 72 117 4.0 10.0 0.00 0.15 0.00 55 1004.7
20260506102605 72 107 4.0 10.0 0.00 0.15 0.00 57 1004.6
20260506102503 72 104 4.0 10.0 0.00 0.15 0.00 56 1004.7
20260506102421 72 102 3.0 10.0 0.00 0.15 0.00 57 1004.7
20260506102403 72 99 3.0 10.0 0.00 0.15 0.00 57 1004.8
20260506102305 72 100 3.0 9.0 0.00 0.15 0.00 58 1004.7
20260506102217 72 99 3.0 9.0 0.00 0.15 0.00 58 1004.6
20260506102103 72 79 2.0 9.0 0.00 0.15 0.00 60 1004.7
20260506101903 72 67 2.0 7.0 0.00 0.15 0.00 59 1004.7
20260506101804 72 84 2.0 7.0 0.00 0.15 0.00 60 1004.8
20260506101703 71 113 1.0 6.0 0.00 0.15 0.00 61 1004.9
20260506101604 71 141 1.0 4.0 0.00 0.15 0.00 60 1004.9
20260506101505 71 153 1.0 6.0 0.00 0.15 0.00 62 1004.9
20260506101403 71 145 1.0 6.0 0.00 0.15 0.00 60 1004.9
20260506101303 71 136 2.0 7.0 0.00 0.15 0.00 61 1005.0
20260506101219 71 125 2.0 7.0 0.00 0.15 0.00 61 1004.8
20260506101203 71 126 2.0 7.0 0.00 0.15 0.00 58 1004.8
20260506101103 71 128 2.0 7.0 0.00 0.15 0.00 59 1004.8
20260506101016 71 128 2.0 7.0 0.00 0.15 0.00 59 1004.9
20260506100903 71 125 3.0 7.0 0.00 0.15 0.00 59 1005.0
20260506100818 71 120 3.0 8.0 0.00 0.15 0.00 61 1005.0
20260506100720 71 113 3.0 8.0 0.00 0.15 0.00 60 1005.0
20260506100703 71 111 3.0 9.0 0.00 0.15 0.00 60 1004.9
20260506100416 70 109 4.0 9.0 0.00 0.15 0.00 61 1005.1
20260506100404 70 109 4.0 9.0 0.00 0.15 0.00 61 1005.0
20260506100305 70 110 4.0 9.0 0.00 0.15 0.00 61 1004.9
20260506100120 70 113 4.0 9.0 0.00 0.15 0.00 60 1004.9
20260506100005 70 113 4.0 9.0 0.00 0.15 0.00 64 1005.0
20260506095819 70 117 3.0 9.0 0.00 0.15 0.00 61 1005.1
20260506095803 70 120 3.0 9.0 0.00 0.15 0.00 60 1005.0
20260506095705 70 128 3.0 9.0 0.00 0.15 0.00 60 1005.0
20260506095505 70 130 2.0 8.0 0.00 0.15 0.00 62 1005.1
20260506095404 70 130 2.0 8.0 0.00 0.15 0.00 61 1005.0
20260506095305 70 129 2.0 7.0 0.00 0.15 0.00 61 1005.0
20260506095204 70 131 2.0 7.0 0.00 0.15 0.00 59 1005.0
20260506095103 70 133 2.0 7.0 0.00 0.15 0.00 62 1005.3
20260506095004 70 131 2.0 7.0 0.00 0.15 0.00 63 1004.9
20260506094919 70 127 2.0 7.0 0.00 0.15 0.00 63 1004.9
20260506094904 70 125 2.0 7.0 0.00 0.15 0.00 63 1005.1
20260506094804 70 123 2.0 7.0 0.00 0.15 0.00 60 1005.3
20260506094603 70 120 2.0 8.0 0.00 0.15 0.00 61 1005.1
20260506094503 69 120 2.0 8.0 0.00 0.15 0.00 62 1005.1
20260506094404 69 119 3.0 8.0 0.00 0.15 0.00 64 1005.1
20260506094303 69 118 3.0 8.0 0.00 0.15 0.00 61 1005.2
20260506094205 69 111 3.0 8.0 0.00 0.15 0.00 61 1005.2
20260506094103 69 103 3.0 8.0 0.00 0.15 0.00 61 1005.3
20260506094003 69 108 3.0 8.0 0.00 0.15 0.00 59 1005.2
20260506093903 69 108 3.0 8.0 0.00 0.15 0.00 60 1005.2
20260506093804 70 103 3.0 8.0 0.00 0.15 0.00 60 1005.3
20260506093704 70 100 3.0 9.0 0.00 0.15 0.00 60 1005.2
20260506093603 70 86 4.0 10.0 0.00 0.15 0.00 61 1005.2
20260506093504 69 79 4.0 10.0 0.00 0.15 0.00 65 1005.2
20260506093403 69 77 4.0 10.0 0.00 0.15 0.00 64 1005.1
20260506093318 69 74 4.0 10.0 0.00 0.15 0.00 61 1005.1
20260506093304 69 75 4.0 10.0 0.00 0.15 0.00 61 1005.3
20260506093204 69 85 4.0 10.0 0.00 0.15 0.00 61 1005.2
20260506093003 69 94 4.0 10.0 0.00 0.15 0.00 64 1005.1
20260506092918 69 96 4.0 10.0 0.00 0.15 0.00 63 1005.1
20260506092904 69 97 4.0 10.0 0.00 0.15 0.00 63 1005.1
20260506092817 69 99 4.0 10.0 0.00 0.15 0.00 61 1005.2
20260506092803 69 100 4.0 10.0 0.00 0.15 0.00 61 1005.2
20260506092504 69 119 3.0 9.0 0.00 0.15 0.00 63 1005.2
20260506092403 69 115 3.0 9.0 0.00 0.15 0.00 64 1005.3
20260506092312 69 114 3.0 9.0 0.00 0.15 0.00 64 1005.4
20260506092204 69 117 3.0 9.0 0.00 0.15 0.00 64 1005.1
20260506092119 69 118 3.0 9.0 0.00 0.15 0.00 64 1005.1
20260506092104 69 118 3.0 9.0 0.00 0.15 0.00 64 1005.2
20260506092003 69 108 3.0 9.0 0.00 0.15 0.00 64 1005.1
20260506091803 69 105 3.0 8.0 0.00 0.15 0.00 67 1005.3
20260506091705 68 102 2.0 8.0 0.00 0.15 0.00 66 1005.2
20260506091605 68 95 3.0 8.0 0.00 0.15 0.00 64 1005.4
20260506091504 68 100 3.0 8.0 0.00 0.15 0.00 66 1005.2
20260506091304 68 114 3.0 10.0 0.00 0.15 0.00 68 1005.4
20260506091212 67 110 4.0 10.0 0.00 0.15 0.00 67 1005.4
20260506091203 67 108 4.0 10.0 0.00 0.15 0.00 67 1005.4
20260506091003 67 104 3.0 10.0 0.00 0.15 0.00 67 1005.3
20260506090904 67 102 3.0 10.0 0.00 0.15 0.00 66 1005.1
20260506090804 67 104 3.0 10.0 0.00 0.15 0.00 64 1005.4
20260506090703 67 104 4.0 10.0 0.00 0.15 0.00 67 1005.5
20260506090604 67 106 4.0 10.0 0.00 0.15 0.00 67 1005.5
20260506090504 67 104 4.0 10.0 0.00 0.15 0.00 67 1005.3
20260506090419 67 100 4.0 10.0 0.00 0.15 0.00 67 1005.3
20260506090404 67 99 4.0 10.0 0.00 0.15 0.00 67 1005.4
20260506090303 67 97 4.0 10.0 0.00 0.15 0.00 66 1005.2
20260506090105 67 97 3.0 9.0 0.00 0.15 0.00 63 1005.5
20260506090004 67 97 4.0 9.0 0.00 0.15 0.00 67 1005.8
20260506085921 67 100 4.0 10.0 0.00 0.15 0.00 66 1005.5
20260506085903 67 101 4.0 10.0 0.00 0.15 0.00 66 1005.5
20260506085819 67 102 4.0 10.0 0.00 0.15 0.00 66 1005.5
20260506085803 67 101 4.0 10.0 0.00 0.15 0.00 66 1005.5
20260506085503 67 96 5.0 10.0 0.00 0.15 0.00 68 1005.5
20260506085417 66 92 4.0 10.0 0.00 0.15 0.00 68 1005.6
20260506085403 66 91 4.0 10.0 0.00 0.15 0.00 68 1005.6
20260506085306 66 90 4.0 10.0 0.00 0.15 0.00 68 1005.5
20260506085104 66 95 4.0 10.0 0.00 0.15 0.00 65 1005.6
20260506085004 66 100 4.0 10.0 0.00 0.15 0.00 69 1005.4
20260506084904 66 99 4.0 10.0 0.00 0.15 0.00 69 1005.4
20260506084804 66 101 4.0 10.0 0.00 0.15 0.00 70 1005.4
20260506084705 65 106 3.0 10.0 0.00 0.15 0.00 69 1005.3
20260506084618 66 114 3.0 8.0 0.00 0.15 0.00 67 1005.5
20260506084605 66 117 3.0 8.0 0.00 0.15 0.00 67 1005.5
20260506084505 66 129 3.0 8.0 0.00 0.15 0.00 67 1005.5
20260506084318 66 133 3.0 8.0 0.00 0.15 0.00 71 1005.4
20260506084304 66 133 3.0 8.0 0.00 0.15 0.00 71 1005.4
20260506084205 65 131 3.0 8.0 0.00 0.15 0.00 71 1005.4
20260506084003 65 114 3.0 8.0 0.00 0.15 0.00 70 1005.6
20260506083908 65 111 4.0 8.0 0.00 0.15 0.00 71 1005.6
20260506083804 65 110 4.0 8.0 0.00 0.15 0.00 70 1005.5
20260506083703 65 109 4.0 8.0 0.00 0.15 0.00 70 1005.5
20260506083603 65 107 4.0 8.0 0.00 0.15 0.00 68 1005.5
20260506083505 65 102 4.0 8.0 0.00 0.15 0.00 68 1005.4
20260506083403 65 98 4.0 8.0 0.00 0.15 0.00 70 1005.5
20260506083304 65 98 4.0 9.0 0.00 0.15 0.00 70 1005.5
20260506083204 65 106 4.0 9.0 0.00 0.15 0.00 70 1005.5
20260506083103 65 113 4.0 9.0 0.00 0.15 0.00 69 1005.5
20260506083005 65 122 4.0 9.0 0.00 0.15 0.00 73 1005.5
20260506082904 65 124 4.0 9.0 0.00 0.15 0.00 71 1005.4
20260506082803 65 121 4.0 9.0 0.00 0.15 0.00 73 1005.6
20260506082720 64 121 4.0 9.0 0.00 0.15 0.00 74 1005.6
20260506082703 64 120 4.0 9.0 0.00 0.15 0.00 74 1005.6
20260506082604 64 117 4.0 9.0 0.00 0.15 0.00 73 1005.6
20260506082405 64 118 4.0 9.0 0.00 0.15 0.00 71 1005.5
20260506082318 64 122 4.0 9.0 0.00 0.15 0.00 71 1005.5
20260506082305 64 120 4.0 9.0 0.00 0.15 0.00 71 1005.5
20260506082216 64 118 4.0 9.0 0.00 0.15 0.00 71 1005.5
20260506082205 64 119 4.0 9.0 0.00 0.15 0.00 71 1005.6
20260506081904 64 116 3.0 8.0 0.00 0.15 0.00 73 1005.5
20260506081804 64 119 3.0 11.0 0.00 0.15 0.00 72 1005.8
20260506081705 64 118 3.0 11.0 0.00 0.15 0.00 70 1005.5
20260506081604 64 116 4.0 11.0 0.00 0.15 0.00 70 1005.9
20260506081519 64 114 4.0 11.0 0.00 0.15 0.00 72 1005.9
20260506081503 64 114 4.0 11.0 0.00 0.15 0.00 72 1005.8
20260506081404 64 109 4.0 11.0 0.00 0.15 0.00 73 1005.8
20260506081203 63 97 5.0 11.0 0.00 0.15 0.00 73 1005.8
20260506081103 63 94 5.0 11.0 0.00 0.15 0.00 74 1005.6
20260506081003 63 92 5.0 11.0 0.00 0.15 0.00 76 1005.6
20260506080903 63 92 6.0 11.0 0.00 0.15 0.00 73 1005.9
20260506080804 63 89 6.0 11.0 0.00 0.15 0.00 76 1005.8
20260506080720 63 88 6.0 11.0 0.00 0.15 0.00 75 1005.8
20260506080703 63 87 6.0 11.0 0.00 0.15 0.00 75 1005.8
20260506080618 63 86 5.0 11.0 0.00 0.15 0.00 75 1005.8
20260506080603 63 85 5.0 11.0 0.00 0.15 0.00 74 1005.6
20260506080303 63 95 5.0 11.0 0.00 0.15 0.00 74 1005.6
20260506080204 62 97 4.0 11.0 0.00 0.15 0.00 74 1005.8
20260506080103 62 102 4.0 11.0 0.00 0.15 0.00 74 1005.9
20260506073503 60 72 5.0 11.0 0.00 0.15 0.00 83 1006.0
20260506073320 60 74 5.0 11.0 0.00 0.15 0.00 85 1006.0
20260506073304 59 74 5.0 11.0 0.00 0.15 0.00 83 1006.0
20260506073203 59 74 5.0 11.0 0.00 0.15 0.00 83 1005.9
20260506073003 59 73 5.0 11.0 0.00 0.15 0.00 82 1006.1
20260506072903 59 67 5.0 11.0 0.00 0.15 0.00 82 1006.1
20260506072804 59 66 5.0 11.0 0.00 0.15 0.00 83 1006.3
20260506072704 59 65 5.0 11.0 0.00 0.15 0.00 83 1006.1
20260506072603 59 67 5.0 11.0 0.00 0.15 0.00 83 1006.1
20260506072503 59 65 5.0 11.0 0.00 0.15 0.00 83 1006.0
20260506072403 59 61 5.0 11.0 0.00 0.15 0.00 84 1005.9
20260506072306 58 60 5.0 10.0 0.00 0.15 0.00 84 1006.1
20260506072203 58 66 4.0 10.0 0.00 0.15 0.00 84 1006.1
20260506072103 58 70 4.0 11.0 0.00 0.15 0.00 83 1006.2
20260506072004 58 72 5.0 11.0 0.00 0.15 0.00 83 1006.1
20260506071904 58 79 5.0 11.0 0.00 0.15 0.00 83 1006.2
20260506071818 58 79 5.0 11.0 0.00 0.15 0.00 83 1006.2
20260506071805 58 79 5.0 11.0 0.00 0.15 0.00 83 1006.2
20260506071704 58 83 5.0 11.0 0.00 0.15 0.00 84 1006.2
20260506071504 58 84 5.0 11.0 0.00 0.15 0.00 85 1006.4
20260506071403 58 87 5.0 11.0 0.00 0.15 0.00 85 1006.3
20260506071304 58 86 5.0 11.0 0.00 0.15 0.00 85 1006.4
20260506071203 58 82 6.0 11.0 0.00 0.15 0.00 85 1006.4
20260506071103 58 80 6.0 11.0 0.00 0.15 0.00 85 1006.5
20260506071004 58 79 5.0 10.0 0.00 0.15 0.00 85 1006.3
20260506070904 57 77 5.0 10.0 0.00 0.15 0.00 86 1006.2
20260506070805 57 76 4.0 10.0 0.00 0.15 0.00 86 1006.5
20260506070704 57 74 4.0 10.0 0.00 0.15 0.00 86 1006.3
20260506070503 57 84 4.0 11.0 0.00 0.15 0.00 85 1006.2
20260506070404 57 86 4.0 11.0 0.00 0.15 0.00 86 1006.3
20260506070304 57 87 4.0 11.0 0.00 0.15 0.00 86 1006.5
20260506070204 57 85 4.0 11.0 0.00 0.15 0.00 87 1006.4
20260506070105 57 84 4.0 11.0 0.00 0.15 0.00 86 1006.5
20260506062503 55 83 6.0 15.0 0.00 0.15 0.00 89 1006.4
20260506062403 55 86 5.0 15.0 0.00 0.15 0.00 89 1006.5
20260506062305 55 86 5.0 15.0 0.00 0.15 0.00 89 1006.5
20260506062203 55 85 5.0 15.0 0.00 0.15 0.00 88 1006.5
20260506062003 55 89 5.0 10.0 0.00 0.15 0.00 89 1006.5
20260506061904 55 87 5.0 10.0 0.00 0.15 0.00 89 1006.4
20260506061808 55 89 5.0 10.0 0.00 0.15 0.00 89 1006.5
20260506061705 55 90 4.0 10.0 0.00 0.15 0.00 89 1006.7
20260506061619 55 91 4.0 10.0 0.00 0.15 0.00 90 1006.7
20260506061604 55 90 4.0 10.0 0.00 0.15 0.00 90 1006.5
20260506061504 55 89 4.0 10.0 0.00 0.15 0.00 91 1006.5
20260506061421 55 88 4.0 10.0 0.00 0.15 0.00 91 1006.5
20260506061303 55 90 4.0 10.0 0.00 0.15 0.00 91 1006.5
20260506061218 55 89 4.0 10.0 0.00 0.15 0.00 91 1006.6
20260506061105 54 94 4.0 10.0 0.00 0.15 0.00 91 1006.4
20260506060904 54 96 4.0 10.0 0.00 0.15 0.00 91 1006.6
20260506060805 54 94 4.0 10.0 0.00 0.15 0.00 91 1006.6
20260506060703 54 95 5.0 10.0 0.00 0.15 0.00 90 1006.5
20260506060604 54 96 5.0 10.0 0.00 0.15 0.00 90 1006.6
20260506060504 54 100 5.0 10.0 0.00 0.15 0.00 90 1006.6
20260506060404 54 101 5.0 10.0 0.00 0.15 0.00 91 1006.7
20260506060304 54 97 5.0 10.0 0.00 0.15 0.00 90 1006.5
20260506060219 54 97 5.0 10.0 0.00 0.15 0.00 92 1006.5
20260506060204 54 98 5.0 10.0 0.00 0.15 0.00 92 1006.5
20260506051416 52 91 5.0 11.0 0.00 0.15 0.00 99 1006.6
20260506051404 52 91 5.0 11.0 0.00 0.15 0.00 99 1006.6
20260506051304 52 90 4.0 10.0 0.00 0.15 0.00 99 1006.8
20260506051103 52 89 4.0 10.0 0.00 0.15 0.00 99 1006.6
20260506051005 51 91 5.0 10.0 0.00 0.15 0.00 99 1006.6
20260506050904 51 92 5.0 10.0 0.00 0.15 0.00 99 1006.8
20260506050803 51 92 4.0 10.0 0.00 0.15 0.00 99 1006.6
20260506050718 51 93 4.0 10.0 0.00 0.15 0.00 99 1006.6
20260506050706 51 94 4.0 10.0 0.00 0.15 0.00 99 1006.6
20260506050603 51 97 4.0 9.0 0.00 0.15 0.00 99 1006.5
20260506050404 51 103 3.0 9.0 0.00 0.15 0.00 99 1006.8
20260506050304 51 105 3.0 9.0 0.00 0.15 0.00 99 1006.8
20260506050203 51 103 3.0 9.0 0.00 0.15 0.00 99 1006.8
20260506050103 51 107 3.0 9.0 0.00 0.15 0.00 99 1006.8
20260506045104 50 97 3.0 8.0 0.00 0.15 0.00 99 1006.6
20260506044805 50 89 2.0 8.0 0.00 0.15 0.00 99 1006.7
20260506044705 50 84 2.0 6.0 0.00 0.15 0.00 99 1006.6
20260506044603 50 85 2.0 6.0 0.00 0.15 0.00 99 1006.5
20260506044505 50 82 2.0 6.0 0.00 0.15 0.00 99 1006.6
20260506044403 49 78 1.0 6.0 0.00 0.15 0.00 99 1006.5
20260506044316 49 75 1.0 6.0 0.00 0.15 0.00 99 1006.6
20260506044305 49 74 1.0 6.0 0.00 0.15 0.00 99 1006.6
20260506044219 49 71 1.0 6.0 0.00 0.15 0.00 99 1006.6
20260506044204 49 72 1.0 6.0 0.00 0.15 0.00 99 1006.6
20260506043903 49 85 1.0 3.0 0.00 0.15 0.00 99 1006.5
20260506043817 49 82 1.0 3.0 0.00 0.15 0.00 99 1006.5
20260506043806 49 84 1.0 3.0 0.00 0.15 0.00 99 1006.6
20260506043703 49 91 1.0 3.0 0.00 0.15 0.00 99 1006.7
20260506043505 49 80 1.0 2.0 0.00 0.15 0.00 99 1006.7
20260506043404 48 76 1.0 3.0 0.00 0.15 0.00 99 1006.7
20260506043318 48 75 1.0 3.0 0.00 0.15 0.00 99 1006.5
20260506043305 48 74 1.0 3.0 0.00 0.15 0.00 99 1006.5
20260506043203 48 71 1.0 3.0 0.00 0.15 0.00 99 1006.5
20260506043003 48 65 1.0 3.0 0.00 0.15 0.00 99 1006.6
20260506042903 48 59 1.0 3.0 0.00 0.15 0.00 99 1006.7
20260506042804 48 58 1.0 3.0 0.00 0.15 0.00 99 1006.7
20260506042703 48 54 1.0 3.0 0.00 0.15 0.00 99 1006.9
20260506042603 47 60 0.0 3.0 0.00 0.15 0.00 99 1006.7
20260506042503 47 65 0.0 3.0 0.00 0.15 0.00 99 1006.9
20260506042404 47 67 0.0 3.0 0.00 0.15 0.00 99 1006.9
20260506042316 47 68 0.0 3.0 0.00 0.15 0.00 99 1006.9
20260506042305 47 69 0.0 3.0 0.00 0.15 0.00 99 1006.9
20260506042204 47 76 0.0 2.0 0.00 0.15 0.00 99 1007.1
20260506042003 47 0 0.0 1.0 0.00 0.15 0.00 99 1007.2
20260506041903 47 0 0.0 1.0 0.00 0.15 0.00 99 1007.2
20260506041804 47 73 0.0 1.0 0.00 0.15 0.00 99 1007.4
20260506041705 47 68 0.0 1.0 0.00 0.15 0.00 99 1007.1
20260506041603 47 67 0.0 1.0 0.00 0.15 0.00 99 1007.2
20260506041503 47 64 0.0 1.0 0.00 0.15 0.00 99 1007.1
20260506041419 46 62 0.0 2.0 0.00 0.15 0.00 99 1007.1
20260506041403 46 61 0.0 2.0 0.00 0.15 0.00 99 1007.1
20260506041304 46 62 0.0 2.0 0.00 0.15 0.00 99 1007.3
20260506041104 46 67 0.0 2.0 0.00 0.15 0.00 99 1007.3
20260506041003 46 67 0.0 2.0 0.00 0.15 0.00 99 1007.1
20260506040915 46 67 0.0 2.0 0.00 0.15 0.00 99 1007.2
20260506040903 46 68 0.0 2.0 0.00 0.15 0.00 99 1007.2
20260506040718 46 78 0.0 2.0 0.00 0.15 0.00 99 1007.2
20260506040705 46 79 0.0 2.0 0.00 0.15 0.00 99 1007.2
20260506040603 46 84 0.0 2.0 0.00 0.15 0.00 99 1007.1
20260506040404 46 98 0.0 2.0 0.00 0.15 0.00 99 1007.2
20260506040320 46 106 0.0 2.0 0.00 0.15 0.00 99 1007.2
20260506040303 46 111 0.0 2.0 0.00 0.15 0.00 99 1006.9
20260506040203 46 113 0.0 1.0 0.00 0.15 0.00 99 1007.2
20260506040004 45 99 0.0 1.0 0.00 0.15 0.00 99 1007.1
20260506035903 45 94 0.0 1.0 0.00 0.15 0.00 99 1007.1
20260506035803 45 93 0.0 1.0 0.00 0.15 0.00 99 1006.9
20260506035716 45 91 0.0 1.0 0.00 0.15 0.00 99 1007.1
20260506035704 45 90 0.0 1.0 0.00 0.15 0.00 99 1007.1
20260506035604 45 85 0.0 1.0 0.00 0.15 0.00 99 1007.2
20260506035403 45 82 0.0 1.0 0.00 0.15 0.00 99 1007.1
20260506035306 45 88 0.0 2.0 0.00 0.15 0.00 99 1007.1
20260506035204 45 93 0.0 3.0 0.00 0.15 0.00 99 1006.9
20260506035103 45 96 0.0 3.0 0.00 0.15 0.00 99 1006.9
20260506035018 46 100 0.0 3.0 0.00 0.15 0.00 99 1006.8
20260506035003 46 101 0.0 3.0 0.00 0.15 0.00 99 1006.8
20260506034903 46 103 1.0 3.0 0.00 0.15 0.00 99 1006.8
20260506034603 46 105 1.0 3.0 0.00 0.15 0.00 99 1007.1
20260506034503 46 106 1.0 3.0 0.00 0.15 0.00 99 1006.9
20260506034403 46 107 1.0 3.0 0.00 0.15 0.00 99 1007.2
20260506034303 46 107 1.0 3.0 0.00 0.15 0.00 99 1007.1
20260506034205 46 108 1.0 3.0 0.00 0.15 0.00 99 1007.1
20260506034104 46 111 1.0 3.0 0.00 0.15 0.00 99 1006.9
20260506034004 46 113 1.0 3.0 0.00 0.15 0.00 99 1007.1
20260506033903 46 115 1.0 3.0 0.00 0.15 0.00 99 1007.2
20260506033803 46 118 1.0 2.0 0.00 0.15 0.00 99 1007.1
20260506033716 46 118 1.0 2.0 0.00 0.15 0.00 99 1007.1
20260506033704 46 118 1.0 2.0 0.00 0.15 0.00 99 1007.1
20260506033603 46 117 1.0 2.0 0.00 0.15 0.00 99 1006.9
20260506033403 46 116 1.0 2.0 0.00 0.15 0.00 99 1007.1
20260506033303 46 116 1.0 2.0 0.00 0.15 0.00 99 1006.9
20260506033203 46 116 1.0 2.0 0.00 0.15 0.00 99 1007.2
20260506033103 46 115 1.0 3.0 0.00 0.15 0.00 99 1007.3
20260506033018 46 115 1.0 3.0 0.00 0.15 0.00 99 1007.3
20260506033004 46 115 1.0 3.0 0.00 0.15 0.00 99 1007.3
20260506032904 46 114 1.0 3.0 0.00 0.15 0.00 99 1007.1
20260506032703 46 115 1.0 3.0 0.00 0.15 0.00 99 1007.1
20260506032603 46 116 1.0 3.0 0.00 0.15 0.00 99 1007.2
20260506032519 46 116 1.0 3.0 0.00 0.15 0.00 99 1007.2
20260506032503 46 117 1.0 3.0 0.00 0.15 0.00 99 1006.9
20260506032403 46 116 1.0 3.0 0.00 0.15 0.00 99 1007.2
20260506032218 46 115 1.0 3.0 0.00 0.15 0.00 99 1007.1
20260506032204 46 114 1.0 3.0 0.00 0.15 0.00 99 1007.1
20260506032104 46 114 1.0 3.0 0.00 0.15 0.00 99 1007.2
20260506031903 46 116 1.0 3.0 0.00 0.15 0.00 99 1007.1
20260506031803 46 117 1.0 3.0 0.00 0.15 0.00 99 1006.8
20260506031719 46 117 1.0 3.0 0.00 0.15 0.00 99 1006.8
20260506031704 46 116 1.0 3.0 0.00 0.15 0.00 99 1007.2
20260506031603 46 115 1.0 3.0 0.00 0.15 0.00 99 1006.9
20260506031403 46 111 1.0 3.0 0.00 0.15 0.00 99 1006.9
20260506031303 46 109 1.0 3.0 0.00 0.15 0.00 99 1007.1
20260506031204 45 110 1.0 3.0 0.00 0.15 0.00 99 1007.1
20260506031103 45 112 1.0 3.0 0.00 0.15 0.00 99 1006.9
20260506031004 45 113 1.0 3.0 0.00 0.15 0.00 99 1006.8
20260506030903 45 113 1.0 3.0 0.00 0.15 0.00 99 1006.9
20260506030804 45 112 1.0 3.0 0.00 0.15 0.00 99 1006.9
20260506030717 45 111 1.0 3.0 0.00 0.15 0.00 99 1006.9
20260506030703 45 111 1.0 3.0 0.00 0.15 0.00 99 1006.8
20260506030604 45 112 1.0 3.0 0.00 0.15 0.00 99 1006.8
20260506030404 45 122 1.0 2.0 0.00 0.15 0.00 99 1007.1
20260506030304 45 135 0.0 2.0 0.00 0.15 0.00 99 1007.1
20260506030218 45 133 0.0 2.0 0.00 0.15 0.00 99 1007.1
20260506030204 45 132 0.0 2.0 0.00 0.15 0.00 99 1007.1
20260506030104 45 124 0.0 2.0 0.00 0.15 0.00 99 1006.8
20260506025903 45 99 0.0 1.0 0.00 0.15 0.00 99 1006.8
20260506025803 45 100 0.0 1.0 0.00 0.15 0.00 99 1006.8
20260506025703 45 100 0.0 1.0 0.00 0.15 0.00 99 1006.8
20260506025604 45 100 0.0 1.0 0.00 0.15 0.00 99 1006.7
20260506025503 45 100 0.0 1.0 0.00 0.15 0.00 99 1006.7
20260506025403 45 100 0.0 1.0 0.00 0.15 0.00 99 1006.7
20260506025305 45 100 0.0 1.0 0.00 0.15 0.00 99 1006.8
20260506025203 45 100 0.0 1.0 0.00 0.15 0.00 99 1006.5
20260506025103 45 100 0.0 1.0 0.00 0.15 0.00 99 1006.5
20260506025004 45 100 0.0 1.0 0.00 0.15 0.00 99 1006.6
20260506024705 45 100 0.0 1.0 0.00 0.15 0.00 99 1006.6
20260506024605 45 100 0.0 1.0 0.00 0.15 0.00 99 1006.6
20260506024508 45 0 0.0 0.0 0.00 0.15 0.00 99 1006.6
20260506024404 45 0 0.0 1.0 0.00 0.15 0.00 99 1006.7
20260506024205 45 101 0.0 1.0 0.00 0.15 0.00 99 1006.6
20260506024103 45 101 0.0 1.0 0.00 0.15 0.00 99 1006.5
20260506024020 45 101 0.0 1.0 0.00 0.15 0.00 99 1006.5
20260506024003 45 101 0.0 1.0 0.00 0.15 0.00 99 1006.6
20260506023903 45 101 0.0 1.0 0.00 0.15 0.00 99 1006.6
20260506023817 45 101 0.0 1.0 0.00 0.15 0.00 99 1006.8
20260506023704 45 101 0.0 1.0 0.00 0.15 0.00 99 1006.8
20260506023404 45 101 0.0 1.0 0.00 0.15 0.00 99 1006.6
20260506023303 45 101 0.0 1.0 0.00 0.15 0.00 99 1006.7
20260506023205 45 101 0.0 1.0 0.00 0.15 0.00 99 1006.8
20260506023103 45 101 0.0 1.0 0.00 0.15 0.00 99 1006.7
20260506023004 45 101 0.0 1.0 0.00 0.15 0.00 99 1006.8
20260506022903 45 101 0.0 1.0 0.00 0.15 0.00 99 1006.9
20260506022819 45 101 0.0 1.0 0.00 0.15 0.00 99 1006.9
20260506022804 46 101 0.0 1.0 0.00 0.15 0.00 99 1006.9
20260506022504 46 101 0.0 1.0 0.00 0.15 0.00 99 1006.7
20260506022404 46 101 0.0 1.0 0.00 0.15 0.00 99 1006.9
20260506022305 46 101 0.0 1.0 0.00 0.15 0.00 99 1006.6
20260506022206 46 101 0.0 1.0 0.00 0.15 0.00 99 1006.7
20260506022117 46 101 0.0 1.0 0.00 0.15 0.00 99 1006.7
20260506022103 46 101 0.0 1.0 0.00 0.15 0.00 99 1006.8
20260506022004 46 101 0.0 1.0 0.00 0.15 0.00 99 1006.7
20260506021804 46 0 0.0 0.0 0.00 0.15 0.00 99 1006.7
20260506021705 46 0 0.0 0.0 0.00 0.15 0.00 99 1006.7
20260506021605 46 0 0.0 0.0 0.00 0.15 0.00 99 1006.9
20260506021503 46 0 0.0 0.0 0.00 0.15 0.00 99 1006.8
20260506021403 46 0 0.0 0.0 0.00 0.15 0.00 99 1006.9
20260506021303 46 0 0.0 0.0 0.00 0.15 0.00 99 1006.8
20260506021216 46 0 0.0 0.0 0.00 0.15 0.00 99 1006.7
20260506021203 47 0 0.0 0.0 0.00 0.15 0.00 99 1006.7
20260506021119 47 0 0.0 0.0 0.00 0.15 0.00 99 1006.7
20260506021103 47 0 0.0 0.0 0.00 0.15 0.00 99 1006.8
20260506020804 47 101 0.0 2.0 0.00 0.14 0.00 99 1007.1
20260506020704 47 101 0.0 2.0 0.00 0.14 0.00 99 1006.8
20260506020604 47 101 0.0 2.0 0.00 0.14 0.00 99 1006.8
20260506020503 47 101 0.0 2.0 0.00 0.14 0.00 99 1006.7
20260506020303 47 101 0.0 2.0 0.00 0.14 0.00 99 1006.7
20260506020203 47 101 0.0 2.0 0.00 0.14 0.00 99 1006.9
20260506020104 47 101 0.0 2.0 0.00 0.14 0.00 99 1006.9
20260506020019 47 101 0.0 2.0 0.00 0.14 0.00 99 1006.9
20260506020004 47 101 0.0 2.0 0.00 0.14 0.00 99 1006.7
20260506015904 47 101 0.0 2.0 0.00 0.14 0.00 99 1006.7
20260506015704 47 101 0.0 2.0 0.00 0.14 0.00 99 1006.7
20260506015603 47 101 0.0 2.0 0.00 0.14 0.00 99 1006.8
20260506015504 47 101 0.0 2.0 0.00 0.14 0.00 99 1006.7
20260506015404 47 98 0.0 1.0 0.00 0.14 0.00 99 1006.9
20260506015305 47 94 0.0 1.0 0.00 0.14 0.00 99 1006.8
20260506015204 47 94 0.0 1.0 0.00 0.14 0.00 99 1006.8
20260506015103 47 91 0.0 1.0 0.00 0.14 0.00 99 1006.7
20260506015004 47 84 0.0 1.0 0.00 0.14 0.00 99 1006.6
20260506014903 47 80 0.0 1.0 0.00 0.14 0.00 99 1006.7
20260506014803 48 71 0.0 1.0 0.00 0.14 0.00 99 1006.7
20260506014704 48 60 0.0 2.0 0.00 0.14 0.00 99 1006.8
20260506014620 47 53 0.0 2.0 0.00 0.14 0.00 99 1006.8
20260506014604 47 51 0.0 2.0 0.00 0.14 0.00 99 1006.6
20260506014503 48 45 0.0 2.0 0.00 0.14 0.00 99 1006.6
20260506014304 48 42 0.0 2.0 0.00 0.14 0.00 99 1006.8
20260506014204 48 44 0.0 2.0 0.00 0.14 0.00 99 1006.6
20260506014103 48 46 0.0 2.0 0.00 0.14 0.00 99 1006.6
20260506014004 48 47 0.0 2.0 0.00 0.14 0.00 99 1006.8
20260506013903 48 49 0.0 2.0 0.00 0.14 0.00 99 1006.7
20260506013803 48 50 0.0 2.0 0.00 0.14 0.00 99 1006.7
20260506013705 48 53 0.0 2.0 0.00 0.14 0.00 99 1006.7
20260506013603 48 56 0.0 2.0 0.00 0.14 0.00 99 1006.7
20260506013503 48 59 0.0 2.0 0.00 0.14 0.00 99 1006.5
20260506013403 48 65 0.0 2.0 0.00 0.14 0.00 99 1006.5
20260506013303 48 69 0.0 3.0 0.00 0.14 0.00 99 1006.6
20260506013204 48 81 0.0 3.0 0.00 0.14 0.00 99 1006.6
20260506013118 48 86 1.0 3.0 0.00 0.14 0.00 99 1006.7
20260506013103 48 85 1.0 3.0 0.00 0.14 0.00 99 1006.7
20260506013004 48 83 1.0 3.0 0.00 0.14 0.00 99 1006.6
20260506012920 48 82 1.0 3.0 0.00 0.14 0.00 99 1006.5
20260506012804 48 81 1.0 3.0 0.00 0.14 0.00 99 1006.6
20260506012503 48 76 1.0 3.0 0.00 0.14 0.00 99 1006.6
20260506012404 49 75 1.0 3.0 0.00 0.14 0.00 99 1006.6
20260506012307 49 66 0.0 3.0 0.00 0.14 0.00 99 1006.5
20260506012204 49 48 0.0 3.0 0.00 0.14 0.00 99 1006.6
20260506012103 49 48 0.0 3.0 0.00 0.14 0.00 99 1006.5
20260506012003 49 58 1.0 3.0 0.00 0.14 0.00 99 1006.7
20260506011903 49 68 1.0 3.0 0.00 0.14 0.00 99 1006.5
20260506011820 49 75 1.0 3.0 0.00 0.14 0.00 99 1006.5
20260506011804 49 77 1.0 3.0 0.00 0.14 0.00 99 1006.5
20260506011703 49 84 1.0 3.0 0.00 0.14 0.00 99 1006.6
20260506011504 49 93 1.0 3.0 0.00 0.14 0.00 99 1006.5
20260506011403 49 97 1.0 3.0 0.00 0.14 0.00 99 1006.6
20260506011303 49 104 1.0 3.0 0.00 0.14 0.00 99 1006.6
20260506011203 49 113 1.0 3.0 0.00 0.14 0.00 99 1006.6
20260506011103 49 115 1.0 3.0 0.00 0.14 0.00 99 1006.5
20260506011003 49 112 1.0 3.0 0.00 0.14 0.00 99 1006.6
20260506010904 49 108 1.0 3.0 0.00 0.14 0.00 99 1006.5
20260506010803 49 100 1.0 3.0 0.00 0.14 0.00 99 1006.6
20260506010704 49 86 0.0 3.0 0.00 0.14 0.00 99 1006.7
20260506010604 49 79 0.0 2.0 0.00 0.14 0.00 99 1006.5
20260506010503 49 68 0.0 2.0 0.00 0.14 0.00 99 1006.7
20260506010403 49 57 0.0 2.0 0.00 0.14 0.00 99 1006.7
20260506010303 49 52 1.0 2.0 0.00 0.14 0.00 99 1006.6
20260506010204 49 45 1.0 2.0 0.00 0.14 0.00 99 1006.6
20260506010104 49 39 1.0 2.0 0.00 0.14 0.00 99 1006.6
20260506010003 49 36 1.0 2.0 0.00 0.14 0.00 99 1006.6
20260506005917 49 34 1.0 2.0 0.00 0.14 0.00 99 1006.6
20260506005903 49 33 1.0 2.0 0.00 0.14 0.00 99 1006.6
20260506005803 49 40 1.0 2.0 0.00 0.14 0.00 99 1006.6
20260506005603 49 56 1.0 2.0 0.00 0.14 0.00 99 1006.7
20260506005504 50 66 1.0 2.0 0.00 0.14 0.00 99 1006.6
20260506005418 50 70 1.0 2.0 0.00 0.14 0.00 99 1006.6
20260506005403 50 71 1.0 2.0 0.00 0.14 0.00 99 1006.7
20260506005305 50 77 1.0 2.0 0.00 0.14 0.00 99 1006.5
20260506005104 50 101 1.0 4.0 0.00 0.14 0.00 99 1006.7
20260506005017 50 101 1.0 4.0 0.00 0.14 0.00 99 1006.6
20260506005004 50 99 1.0 4.0 0.00 0.14 0.00 99 1006.6
20260506004904 50 99 1.0 4.0 0.00 0.14 0.00 99 1006.7
20260506004704 50 100 1.0 4.0 0.00 0.14 0.00 99 1006.6
20260506004604 50 101 1.0 4.0 0.00 0.14 0.00 99 1006.6
20260506004505 50 97 1.0 4.0 0.00 0.14 0.00 99 1006.6
20260506004304 50 98 1.0 4.0 0.00 0.14 0.00 99 1006.6
20260506004203 50 91 1.0 4.0 0.00 0.14 0.00 99 1006.5
20260506004103 50 80 1.0 4.0 0.00 0.14 0.00 99 1006.7
20260506004004 50 77 1.0 3.0 0.00 0.14 0.00 99 1006.6
20260506003903 50 74 1.0 2.0 0.00 0.14 0.00 99 1006.7
20260506003820 50 67 1.0 2.0 0.00 0.14 0.00 99 1006.7
20260506003804 50 66 1.0 2.0 0.00 0.14 0.00 99 1006.7
20260506003703 50 70 1.0 2.0 0.00 0.14 0.00 99 1006.5
20260506003519 50 73 1.0 3.0 0.00 0.14 0.00 99 1006.6
20260506003503 50 74 1.0 3.0 0.00 0.14 0.00 99 1006.6
20260506003403 50 71 1.0 3.0 0.00 0.14 0.00 99 1006.5
20260506003204 50 69 1.0 3.0 0.00 0.14 0.00 99 1006.6
20260506003103 50 71 1.0 3.0 0.00 0.14 0.00 99 1006.5
20260506003004 50 70 1.0 3.0 0.00 0.14 0.00 99 1006.6
20260506002804 50 55 1.0 3.0 0.00 0.14 0.00 99 1006.7
20260506002703 50 47 1.0 3.0 0.00 0.14 0.00 99 1006.5
20260506002603 51 40 1.0 3.0 0.00 0.14 0.00 99 1006.5
20260506002504 51 29 1.0 3.0 0.00 0.14 0.00 99 1006.5
20260506002403 51 24 1.0 3.0 0.00 0.14 0.00 99 1006.6
20260506002306 51 21 1.0 3.0 0.00 0.14 0.00 99 1006.6
20260506002203 51 22 1.0 3.0 0.00 0.14 0.00 99 1006.6
20260506002116 51 22 1.0 3.0 0.00 0.14 0.00 99 1006.6
20260506002105 51 23 1.0 3.0 0.00 0.14 0.00 99 1006.6
20260506002003 51 27 1.0 3.0 0.00 0.14 0.00 99 1006.6
20260506001804 51 26 1.0 4.0 0.00 0.14 0.00 99 1006.5
20260506001718 51 23 1.0 4.0 0.00 0.14 0.00 99 1006.6
20260506001703 51 24 1.0 4.0 0.00 0.14 0.00 99 1006.6
20260506001603 51 29 1.0 4.0 0.00 0.14 0.00 99 1006.5
20260506001404 51 22 1.0 4.0 0.00 0.14 0.00 99 1006.6
20260506001303 51 29 1.0 4.0 0.00 0.14 0.00 99 1006.6
20260506001220 51 35 1.0 4.0 0.00 0.14 0.00 99 1006.5
20260506001203 51 38 1.0 4.0 0.00 0.14 0.00 99 1006.5
20260506001104 51 33 1.0 4.0 0.00 0.14 0.00 99 1006.6
20260506000903 51 23 1.0 4.0 0.00 0.14 0.00 99 1006.8
20260506000803 51 27 1.0 4.0 0.00 0.14 0.00 99 1006.5
20260506000704 51 30 1.0 4.0 0.00 0.14 0.00 99 1006.6
20260506000603 51 24 1.0 4.0 0.00 0.14 0.00 99 1006.6
20260506000504 51 30 1.0 4.0 0.00 0.14 0.00 99 1006.5
20260506000403 51 32 1.0 4.0 0.00 0.14 0.00 99 1006.5
20260506000303 51 25 2.0 6.0 0.00 0.14 0.00 99 1006.7
20260506000205 51 12 2.0 6.0 0.00 0.14 0.00 99 1006.5
20260506000104 51 9 2.0 6.0 0.00 0.14 0.00 99 1006.7
20260506000004 51 12 2.0 6.0 0.00 0.14 0.00 99 1006.7
20260505235903 51 11 2.0 6.0 0.00 0.14 0.14 99 1006.5
20260505235803 51 8 2.0 6.0 0.00 0.14 0.14 99 1006.5
20260505235703 51 6 2.0 6.0 0.00 0.14 0.14 99 1006.6
20260505235604 51 6 2.0 6.0 0.00 0.14 0.14 99 1006.7
20260505235519 51 4 2.0 6.0 0.00 0.14 0.14 99 1006.7
20260505235504 51 5 2.0 6.0 0.00 0.14 0.14 99 1006.5
20260505235404 51 5 2.0 6.0 0.00 0.14 0.14 99 1006.7
20260505235103 51 14 2.0 6.0 0.00 0.14 0.14 99 1006.6
20260505235016 51 15 2.0 6.0 0.00 0.14 0.14 99 1006.7
20260505235003 51 16 2.0 6.0 0.00 0.14 0.14 99 1006.7
20260505234903 52 15 2.0 6.0 0.00 0.14 0.14 99 1006.5
20260505234705 52 18 2.0 6.0 0.00 0.14 0.14 99 1006.5
20260505234619 52 17 2.0 6.0 0.00 0.14 0.14 99 1006.5
20260505234605 52 16 2.0 6.0 0.00 0.14 0.14 99 1006.5
20260505234503 52 14 2.0 6.0 0.00 0.14 0.14 99 1006.5
20260505234304 52 13 2.0 6.0 0.00 0.14 0.14 99 1006.7
20260505234204 52 8 2.0 6.0 0.00 0.14 0.14 99 1006.5
20260505234104 52 3 2.0 6.0 0.00 0.14 0.14 99 1006.5
20260505234003 52 355 2.0 6.0 0.00 0.14 0.14 99 1006.5
20260505233904 52 357 2.0 6.0 0.00 0.14 0.14 99 1006.5
20260505233804 52 357 2.0 6.0 0.00 0.14 0.14 99 1006.5
20260505233704 52 356 2.0 6.0 0.00 0.14 0.14 99 1006.5
20260505233621 52 358 2.0 6.0 0.00 0.14 0.14 99 1006.5
20260505233603 52 360 2.0 6.0 0.00 0.14 0.14 99 1006.5
20260505233504 52 1 2.0 6.0 0.00 0.14 0.14 99 1006.6
20260505233321 52 2 2.0 6.0 0.00 0.14 0.14 99 1006.7
20260505233303 52 4 2.0 6.0 0.00 0.14 0.14 99 1006.7
20260505233204 52 7 2.0 4.0 0.00 0.14 0.14 99 1006.5
20260505233016 52 17 1.0 4.0 0.00 0.14 0.14 99 1006.6
20260505233003 52 18 1.0 4.0 0.00 0.14 0.14 99 1006.6
20260505232904 52 23 1.0 4.0 0.00 0.14 0.14 99 1006.6
20260505232703 52 37 1.0 4.0 0.00 0.14 0.14 99 1006.7
20260505232604 52 42 1.0 4.0 0.00 0.14 0.14 99 1006.6
20260505232504 52 42 1.0 4.0 0.00 0.14 0.14 99 1006.5
20260505232404 52 37 1.0 4.0 0.00 0.14 0.14 99 1006.6
20260505232305 52 31 1.0 4.0 0.00 0.14 0.14 99 1006.5
20260505232205 52 33 1.0 4.0 0.00 0.14 0.14 99 1006.7
20260505232103 52 34 1.0 4.0 0.00 0.14 0.14 99 1006.7
20260505231904 52 31 1.0 4.0 0.00 0.14 0.14 99 1006.6
20260505231803 52 30 1.0 4.0 0.00 0.14 0.14 99 1006.5
20260505231703 52 27 1.0 4.0 0.00 0.14 0.14 99 1006.5
20260505231603 52 22 1.0 4.0 0.00 0.14 0.14 99 1006.5
20260505231503 52 33 1.0 4.0 0.00 0.14 0.14 99 1006.5
20260505231403 52 42 1.0 4.0 0.00 0.14 0.14 99 1006.6
20260505231303 52 49 1.0 6.0 0.00 0.14 0.14 99 1006.6
20260505231203 52 50 1.0 6.0 0.00 0.14 0.14 99 1006.5
20260505231104 52 52 1.0 6.0 0.00 0.14 0.14 99 1006.5
20260505231004 52 49 1.0 6.0 0.00 0.14 0.14 99 1006.7
20260505230803 52 46 1.0 6.0 0.00 0.14 0.14 99 1006.5
20260505230703 52 51 1.0 6.0 0.00 0.14 0.14 99 1006.6
20260505230504 52 48 1.0 6.0 0.00 0.14 0.14 99 1006.7
20260505230403 52 50 1.0 6.0 0.00 0.14 0.14 99 1006.6
20260505230304 52 63 1.0 6.0 0.00 0.14 0.14 99 1006.6
20260505230217 52 77 1.0 6.0 0.00 0.14 0.14 99 1006.7
20260505230204 52 84 0.0 3.0 0.00 0.14 0.14 99 1006.7
20260505225903 52 108 0.0 2.0 0.00 0.14 0.14 99 1006.6
20260505225803 52 106 0.0 2.0 0.00 0.14 0.14 99 1006.7
20260505225703 52 103 0.0 2.0 0.00 0.14 0.14 99 1006.6
20260505225604 52 101 0.0 2.0 0.00 0.14 0.14 99 1006.8
20260505225503 52 103 0.0 2.0 0.00 0.14 0.14 99 1006.7
20260505225403 52 103 0.0 2.0 0.00 0.14 0.14 99 1006.6
20260505225320 52 97 0.0 2.0 0.00 0.14 0.14 99 1006.7
20260505225306 52 95 0.0 2.0 0.00 0.14 0.14 99 1006.7
20260505225205 52 92 0.0 2.0 0.00 0.14 0.14 99 1006.6
20260505225003 52 88 0.0 2.0 0.00 0.14 0.14 99 1006.8
20260505224903 52 81 0.0 2.0 0.00 0.14 0.14 99 1006.6
20260505224803 52 79 0.0 2.0 0.00 0.14 0.14 99 1006.7
20260505224704 52 74 0.0 2.0 0.00 0.14 0.14 99 1006.8
20260505224604 52 67 0.0 2.0 0.00 0.14 0.14 99 1006.7
20260505224503 53 52 0.0 2.0 0.00 0.14 0.14 99 1006.5
20260505224403 53 39 0.0 2.0 0.00 0.14 0.14 99 1006.7
20260505224304 53 30 0.0 3.0 0.00 0.14 0.14 99 1006.8
20260505224217 53 23 0.0 3.0 0.00 0.14 0.14 99 1006.7
20260505224204 53 22 0.0 3.0 0.00 0.14 0.14 99 1006.7
20260505224103 53 13 0.0 3.0 0.00 0.14 0.14 99 1006.7
20260505223904 53 4 0.0 3.0 0.00 0.14 0.14 99 1006.7
20260505223804 53 3 1.0 3.0 0.00 0.14 0.14 99 1006.7
20260505223604 53 8 1.0 4.0 0.00 0.14 0.14 99 1006.8
20260505223503 53 12 1.0 4.0 0.00 0.14 0.14 99 1006.8
20260505223403 53 13 1.0 4.0 0.00 0.14 0.14 99 1006.8
20260505223304 53 15 1.0 4.0 0.00 0.14 0.14 99 1006.7
20260505223203 53 20 1.0 4.0 0.00 0.14 0.14 99 1006.8
20260505223003 52 23 1.0 4.0 0.00 0.14 0.14 99 1006.8
20260505222917 52 26 1.0 4.0 0.00 0.14 0.14 99 1006.8
20260505222805 52 29 1.0 4.0 0.00 0.14 0.14 99 1006.8
20260505222720 52 34 1.0 4.0 0.00 0.14 0.14 99 1006.8
20260505222704 52 36 1.0 4.0 0.00 0.14 0.14 99 1006.9
20260505222618 52 36 1.0 4.0 0.00 0.14 0.14 99 1006.7
20260505222604 52 34 1.0 4.0 0.00 0.14 0.14 99 1006.7
20260505222305 52 38 1.0 3.0 0.00 0.14 0.14 99 1007.1
20260505222205 52 33 1.0 2.0 0.00 0.14 0.14 99 1006.9
20260505222119 52 33 0.0 2.0 0.00 0.14 0.14 99 1006.9
20260505222104 52 34 0.0 2.0 0.00 0.14 0.14 99 1006.9
20260505222003 52 35 0.0 2.0 0.00 0.14 0.14 99 1006.9
20260505221920 52 35 0.0 2.0 0.00 0.14 0.14 99 1006.9
20260505221803 52 35 0.0 2.0 0.00 0.14 0.14 99 1007.1
20260505221503 52 32 0.0 2.0 0.00 0.14 0.14 99 1007.2
20260505221417 52 32 0.0 2.0 0.00 0.14 0.14 99 1007.2
20260505221404 52 33 0.0 2.0 0.00 0.14 0.14 99 1007.2
20260505221103 53 33 0.0 2.0 0.00 0.14 0.14 99 1007.2
20260505221004 53 33 0.0 2.0 0.00 0.14 0.14 99 1007.2
20260505220904 53 33 0.0 2.0 0.00 0.14 0.14 99 1007.4
20260505220804 53 32 0.0 2.0 0.00 0.14 0.14 99 1007.2
20260505220705 53 31 0.0 2.0 0.00 0.14 0.14 99 1007.2
20260505220604 53 42 0.0 2.0 0.00 0.14 0.14 99 1007.3
20260505220504 53 57 0.0 2.0 0.00 0.14 0.14 99 1007.3
20260505220404 53 76 0.0 2.0 0.00 0.14 0.14 99 1007.2
20260505220303 53 95 0.0 3.0 0.00 0.14 0.14 99 1007.2
20260505220216 53 111 0.0 3.0 0.00 0.14 0.14 99 1007.4
20260505220205 53 115 0.0 3.0 0.00 0.14 0.14 99 1007.4
20260505220104 53 115 0.0 3.0 0.00 0.14 0.14 99 1007.4
20260505215904 53 105 1.0 3.0 0.00 0.14 0.14 99 1007.2
20260505215803 53 98 1.0 3.0 0.00 0.14 0.14 99 1007.2
20260505215703 53 93 1.0 3.0 0.00 0.14 0.14 99 1007.3
20260505215603 53 90 1.0 3.0 0.00 0.14 0.14 99 1007.1
20260505215503 53 87 1.0 3.0 0.00 0.14 0.14 99 1007.3
20260505215403 53 84 1.0 3.0 0.00 0.14 0.14 99 1007.2
20260505215305 53 83 1.0 3.0 0.00 0.14 0.14 99 1007.1
20260505215219 53 79 1.0 3.0 0.00 0.14 0.14 99 1007.1
20260505215204 53 77 1.0 3.0 0.00 0.14 0.14 99 1007.1
20260505215104 53 76 1.0 2.0 0.00 0.14 0.14 99 1007.2
20260505214903 53 75 1.0 2.0 0.00 0.14 0.14 99 1007.2
20260505214803 53 72 1.0 2.0 0.00 0.14 0.14 99 1007.1
20260505214704 53 70 1.0 2.0 0.00 0.14 0.14 99 1007.1
20260505214604 53 73 1.0 2.0 0.00 0.14 0.14 99 1007.3
20260505214503 53 67 1.0 2.0 0.00 0.14 0.14 99 1007.1
20260505214404 53 60 1.0 2.0 0.00 0.14 0.14 99 1007.2
20260505214303 53 41 1.0 2.0 0.00 0.14 0.14 99 1007.2
20260505214204 53 13 1.0 2.0 0.00 0.14 0.14 99 1007.2
20260505214104 53 329 1.0 2.0 0.00 0.14 0.14 99 1007.2
20260505214003 53 311 1.0 3.0 0.00 0.14 0.14 99 1007.2
20260505213904 53 298 1.0 4.0 0.00 0.14 0.14 99 1007.3
20260505213803 53 289 1.0 4.0 0.00 0.14 0.14 99 1007.2
20260505213705 54 283 1.0 4.0 0.00 0.14 0.14 99 1007.2
20260505213604 54 285 1.0 4.0 0.00 0.14 0.14 99 1007.3
20260505213519 54 284 1.0 4.0 0.00 0.14 0.14 99 1007.2
20260505213503 54 285 1.0 4.0 0.00 0.14 0.14 99 1007.2
20260505213404 54 287 1.0 4.0 0.00 0.14 0.14 99 1007.2
20260505213103 54 290 2.0 4.0 0.00 0.14 0.14 99 1007.2
20260505213003 54 283 2.0 4.0 0.00 0.14 0.14 99 1007.1
20260505212918 54 283 2.0 4.0 0.00 0.14 0.14 99 1007.2
20260505212903 54 285 2.0 4.0 0.00 0.14 0.14 99 1007.2
20260505212817 54 300 1.0 4.0 0.00 0.14 0.14 99 1007.2
20260505212804 54 309 1.0 4.0 0.00 0.14 0.14 99 1007.2
20260505212503 54 77 2.0 4.0 0.00 0.14 0.14 99 1007.2
20260505212403 53 85 2.0 4.0 0.00 0.14 0.14 99 1007.2
20260505212305 53 90 2.0 4.0 0.00 0.14 0.14 99 1007.2
20260505212205 53 93 2.0 4.0 0.00 0.14 0.14 99 1006.9
20260505212103 53 85 2.0 4.0 0.00 0.14 0.14 99 1007.1
20260505212004 52 77 2.0 4.0 0.00 0.14 0.14 99 1007.3
20260505211904 52 76 2.0 4.0 0.00 0.14 0.14 99 1007.1
20260505211819 52 73 2.0 4.0 0.00 0.14 0.14 99 1007.1
20260505211804 52 74 2.0 4.0 0.00 0.14 0.14 99 1007.1
20260505211703 52 74 2.0 4.0 0.00 0.14 0.14 99 1006.8
20260505211503 52 63 1.0 4.0 0.00 0.14 0.14 99 1007.2
20260505211417 52 55 1.0 4.0 0.00 0.14 0.14 99 1007.2
20260505211403 52 53 1.0 4.0 0.00 0.14 0.14 99 1007.2
20260505211320 53 38 1.0 3.0 0.00 0.14 0.14 99 1007.2
20260505211303 53 36 1.0 3.0 0.00 0.14 0.14 99 1007.2
20260505211004 53 23 0.0 2.0 0.00 0.14 0.14 99 1007.3
20260505210904 53 25 0.0 2.0 0.00 0.14 0.14 99 1007.4
20260505210803 53 33 1.0 2.0 0.00 0.14 0.14 99 1007.2
20260505210704 53 42 1.0 2.0 0.00 0.14 0.14 99 1007.3
20260505210604 53 51 1.0 2.0 0.00 0.14 0.14 99 1007.3
20260505210504 53 58 1.0 2.0 0.00 0.14 0.14 99 1007.2
20260505210404 53 67 1.0 2.0 0.00 0.14 0.14 99 1007.2
20260505210304 53 74 1.0 2.0 0.00 0.14 0.14 99 1007.3
20260505210205 52 76 1.0 2.0 0.00 0.14 0.14 99 1007.3
20260505210103 52 82 1.0 2.0 0.00 0.14 0.14 99 1007.1
20260505210017 52 84 1.0 2.0 0.00 0.14 0.14 99 1007.2
20260505210003 52 86 1.0 2.0 0.00 0.14 0.14 99 1007.2
20260505205916 52 92 1.0 2.0 0.00 0.14 0.14 99 1007.1
20260505205905 52 93 1.0 2.0 0.00 0.14 0.14 99 1007.1
20260505205603 51 99 1.0 2.0 0.00 0.14 0.14 99 1007.2
20260505205503 51 99 1.0 2.0 0.00 0.14 0.14 99 1007.2
20260505205417 51 98 1.0 2.0 0.00 0.14 0.14 99 1007.4
20260505205404 51 97 1.0 2.0 0.00 0.14 0.14 99 1007.4
20260505205305 51 98 1.0 2.0 0.00 0.14 0.14 99 1007.3
20260505205105 51 98 0.0 2.0 0.00 0.14 0.14 99 1007.1
20260505205003 51 87 0.0 1.0 0.00 0.14 0.14 99 1007.1
20260505204804 51 44 0.0 1.0 0.00 0.14 0.14 99 1007.1
20260505204705 51 30 0.0 2.0 0.00 0.14 0.14 99 1007.3
20260505204603 51 30 0.0 2.0 0.00 0.14 0.14 99 1007.1
20260505204520 51 32 0.0 2.0 0.00 0.14 0.14 99 1007.1
20260505204504 51 34 0.0 2.0 0.00 0.14 0.14 99 1007.1
20260505204404 52 35 0.0 2.0 0.00 0.14 0.14 99 1007.1
20260505204317 52 35 0.0 2.0 0.00 0.14 0.14 99 1007.2
20260505204205 52 35 0.0 2.0 0.00 0.14 0.14 99 1007.1
20260505204003 52 36 0.0 2.0 0.00 0.14 0.14 99 1007.2
20260505203904 52 38 0.0 2.0 0.00 0.14 0.14 99 1007.2
20260505203805 52 39 0.0 2.0 0.00 0.14 0.14 99 1007.3
20260505203703 52 43 0.0 2.0 0.00 0.14 0.14 99 1007.2
20260505203620 52 53 0.0 2.0 0.00 0.14 0.14 99 1007.2
20260505203503 52 0 0.0 1.0 0.00 0.14 0.14 99 1007.2
20260505203304 52 0 0.0 0.0 0.00 0.14 0.14 99 1007.2
20260505203203 52 0 0.0 0.0 0.00 0.14 0.14 99 1007.2
20260505203103 52 0 0.0 0.0 0.00 0.14 0.14 99 1007.2
20260505203003 52 0 0.0 0.0 0.00 0.14 0.14 99 1006.9
20260505202904 52 0 0.0 0.0 0.00 0.14 0.14 99 1007.2
20260505202803 52 0 0.0 0.0 0.00 0.14 0.14 99 1006.9
20260505202703 52 0 0.0 0.0 0.00 0.14 0.14 99 1007.3
20260505202604 52 0 0.0 0.0 0.00 0.14 0.14 99 1007.3
20260505202504 52 0 0.0 0.0 0.00 0.14 0.14 99 1007.1
20260505202306 53 0 0.0 0.0 0.00 0.14 0.14 99 1007.2
20260505202203 53 0 0.0 0.0 0.00 0.14 0.14 99 1007.2
20260505202103 53 0 0.0 0.0 0.00 0.14 0.14 99 1007.1
20260505202004 53 0 0.0 0.0 0.00 0.14 0.14 99 1007.1
20260505201904 53 0 0.0 0.0 0.00 0.14 0.14 99 1007.1
20260505201803 53 0 0.0 0.0 0.00 0.14 0.14 99 1007.3
20260505201703 52 0 0.0 0.0 0.00 0.14 0.14 99 1007.1
20260505201603 53 0 0.0 0.0 0.00 0.14 0.14 98 1007.1
20260505201504 53 0 0.0 0.0 0.00 0.14 0.14 99 1007.1
20260505201404 53 0 0.0 0.0 0.00 0.14 0.14 98 1007.1
20260505201205 53 0 0.0 1.0 0.00 0.14 0.14 98 1006.9
20260505201104 53 138 0.0 1.0 0.00 0.14 0.14 98 1007.1
20260505201004 53 138 0.0 1.0 0.00 0.14 0.14 98 1007.1
20260505200903 53 138 0.0 1.0 0.00 0.14 0.14 98 1006.9
20260505200703 53 138 0.0 1.0 0.00 0.14 0.14 98 1006.9
20260505200604 53 138 0.0 1.0 0.00 0.14 0.14 98 1006.9
20260505200504 53 138 0.0 1.0 0.00 0.14 0.14 98 1007.1
20260505200404 53 138 0.0 1.0 0.00 0.14 0.14 98 1007.2
20260505200304 53 138 0.0 1.0 0.00 0.14 0.14 98 1007.2
20260505200205 53 138 0.0 1.0 0.00 0.14 0.14 98 1007.1
20260505200104 53 137 0.0 1.0 0.00 0.14 0.14 98 1007.2
20260505200004 53 0 0.0 1.0 0.00 0.14 0.14 98 1007.1
20260505195804 53 137 0.0 1.0 0.00 0.14 0.14 98 1006.9
20260505195705 53 137 0.0 1.0 0.00 0.14 0.14 98 1006.9
20260505195604 53 137 0.0 1.0 0.00 0.14 0.14 98 1006.8
20260505195503 53 137 0.0 1.0 0.00 0.14 0.14 98 1006.9
20260505195403 53 137 0.0 1.0 0.00 0.14 0.14 98 1006.8
20260505195305 53 137 0.0 1.0 0.00 0.14 0.14 98 1006.6
20260505195203 53 137 0.0 2.0 0.00 0.14 0.14 98 1006.8
20260505195020 53 137 0.0 2.0 0.00 0.14 0.14 98 1006.9
20260505194903 53 136 0.0 2.0 0.00 0.14 0.14 98 1006.8
20260505194603 53 115 0.0 2.0 0.00 0.14 0.14 98 1006.7
20260505194522 53 105 0.0 2.0 0.00 0.14 0.14 98 1006.7
20260505194404 53 72 1.0 2.0 0.00 0.14 0.14 98 1006.8
20260505194206 53 38 1.0 2.0 0.00 0.14 0.14 98 1006.7
20260505194103 53 23 1.0 2.0 0.00 0.14 0.14 98 1006.7
20260505194016 53 19 1.0 2.0 0.00 0.14 0.14 98 1006.7
20260505193905 53 18 1.0 2.0 0.00 0.14 0.14 98 1006.8
20260505193803 53 19 1.0 2.0 0.00 0.14 0.14 98 1006.6
20260505193704 53 22 1.0 2.0 0.00 0.14 0.14 98 1006.8
20260505193619 53 28 1.0 2.0 0.00 0.14 0.14 98 1006.5
20260505193604 53 30 1.0 2.0 0.00 0.14 0.14 98 1006.5
20260505193503 54 46 1.0 2.0 0.00 0.14 0.14 98 1006.8
20260505193417 54 70 1.0 2.0 0.00 0.14 0.14 98 1006.8
20260505193304 54 104 0.0 2.0 0.00 0.14 0.14 97 1006.7
20260505193104 54 121 0.0 2.0 0.00 0.14 0.14 98 1006.8
20260505193003 54 122 1.0 3.0 0.00 0.14 0.14 98 1006.6
20260505192903 54 119 1.0 3.0 0.00 0.14 0.14 98 1006.6
20260505192804 54 117 1.0 3.0 0.00 0.14 0.14 98 1006.6
20260505192704 54 116 1.0 3.0 0.00 0.14 0.14 98 1006.7
20260505192504 55 115 1.0 3.0 0.00 0.14 0.14 98 1006.8
20260505192403 55 115 1.0 3.0 0.00 0.14 0.14 98 1006.6
20260505192305 55 112 1.0 3.0 0.00 0.14 0.14 98 1006.7
20260505192204 55 111 1.0 3.0 0.00 0.14 0.14 98 1006.7
20260505192103 55 112 1.0 3.0 0.00 0.14 0.14 98 1006.6
20260505192003 55 113 1.0 3.0 0.00 0.14 0.14 98 1006.8
20260505191818 55 116 1.0 3.0 0.00 0.14 0.14 98 1006.8
20260505191803 55 117 1.0 3.0 0.00 0.14 0.14 98 1006.8
20260505191703 55 120 1.0 2.0 0.00 0.14 0.14 98 1006.7
20260505191504 55 123 1.0 2.0 0.00 0.14 0.14 98 1006.7
20260505191403 56 123 0.0 2.0 0.00 0.14 0.14 98 1006.7
20260505191303 56 129 0.0 2.0 0.00 0.14 0.14 98 1006.7
20260505191204 56 140 0.0 2.0 0.00 0.14 0.14 98 1006.7
20260505191104 56 138 0.0 2.0 0.00 0.14 0.14 98 1006.7
20260505191005 56 134 0.0 2.0 0.00 0.14 0.14 98 1006.6
20260505190905 56 131 0.0 2.0 0.00 0.14 0.14 98 1006.8
20260505190804 56 125 1.0 2.0 0.00 0.14 0.14 98 1006.8
20260505190705 56 115 1.0 2.0 0.00 0.14 0.14 98 1006.8
20260505190604 56 110 1.0 2.0 0.00 0.14 0.14 98 1006.8
20260505190504 56 108 1.0 2.0 0.00 0.14 0.14 98 1006.8
20260505190405 56 102 1.0 2.0 0.00 0.14 0.14 98 1006.8
20260505190303 56 96 1.0 2.0 0.00 0.14 0.14 98 1006.6
20260505190205 56 85 1.0 2.0 0.00 0.14 0.14 98 1006.5
20260505190104 56 77 1.0 2.0 0.00 0.14 0.14 97 1006.7
20260505190004 56 67 1.0 2.0 0.00 0.14 0.14 98 1006.9
20260505185904 56 56 0.0 2.0 0.00 0.14 0.14 98 1006.9
20260505185804 56 45 0.0 2.0 0.00 0.14 0.14 98 1006.8
20260505185703 56 46 0.0 2.0 0.00 0.14 0.14 98 1006.8
20260505185603 56 48 0.0 1.0 0.00 0.14 0.14 98 1006.8
20260505185504 56 49 0.0 1.0 0.00 0.14 0.14 98 1006.7
20260505185305 56 50 0.0 1.0 0.00 0.14 0.14 98 1006.8
20260505185204 56 47 0.0 1.0 0.00 0.14 0.14 97 1006.7
20260505185103 57 44 0.0 1.0 0.00 0.14 0.14 98 1006.8
20260505185003 57 39 0.0 1.0 0.00 0.14 0.14 97 1006.8
20260505184904 57 32 0.0 2.0 0.00 0.14 0.14 97 1006.6
20260505184820 57 23 0.0 2.0 0.00 0.14 0.14 97 1006.6
20260505184804 57 22 0.0 2.0 0.00 0.14 0.14 97 1006.6
20260505184704 57 13 1.0 2.0 0.00 0.14 0.14 97 1006.5
20260505184519 57 4 1.0 2.0 0.00 0.14 0.14 98 1006.7
20260505184503 57 2 1.0 2.0 0.00 0.14 0.14 98 1006.7
20260505184404 57 359 1.0 2.0 0.00 0.14 0.14 98 1006.6
20260505184203 57 355 1.0 2.0 0.00 0.14 0.14 98 1006.7
20260505184103 57 359 1.0 2.0 0.00 0.14 0.14 98 1006.8
20260505184004 57 3 1.0 2.0 0.00 0.14 0.14 97 1006.7
20260505183903 57 5 1.0 2.0 0.00 0.14 0.14 97 1006.6
20260505183804 57 8 1.0 2.0 0.00 0.14 0.14 97 1006.7
20260505183716 57 10 1.0 2.0 0.00 0.14 0.14 97 1006.8
20260505183704 57 11 1.0 2.0 0.00 0.14 0.14 97 1006.8
20260505183605 57 20 0.0 2.0 0.00 0.14 0.14 97 1006.6
20260505183416 58 54 0.0 2.0 0.00 0.14 0.14 97 1006.5
20260505183404 58 59 0.0 2.0 0.00 0.14 0.14 97 1006.5
20260505183304 58 86 0.0 2.0 0.00 0.14 0.14 97 1006.5
20260505183104 58 92 0.0 2.0 0.00 0.14 0.14 97 1006.6
20260505183005 58 93 0.0 2.0 0.00 0.14 0.14 97 1006.5
20260505182903 58 94 0.0 2.0 0.00 0.14 0.14 97 1006.7
20260505182804 58 95 1.0 2.0 0.00 0.14 0.14 97 1006.6
20260505182704 58 96 1.0 2.0 0.00 0.14 0.14 97 1006.5
20260505182603 58 95 1.0 2.0 0.00 0.14 0.14 97 1006.6
20260505182503 58 94 1.0 2.0 0.00 0.14 0.14 97 1006.5
20260505182404 58 99 1.0 2.0 0.00 0.14 0.14 97 1006.6
20260505182306 58 105 1.0 4.0 0.00 0.14 0.14 97 1006.5
20260505182204 58 111 1.0 4.0 0.00 0.14 0.14 97 1006.5
20260505182104 58 113 1.0 4.0 0.00 0.14 0.14 97 1006.6
20260505181904 58 119 1.0 4.0 0.00 0.14 0.14 97 1006.5
20260505181804 58 119 1.0 4.0 0.00 0.14 0.14 97 1006.5
20260505181704 58 121 1.0 4.0 0.00 0.14 0.14 97 1006.5
20260505181504 58 124 1.0 4.0 0.00 0.14 0.14 97 1006.5
20260505181404 58 122 2.0 4.0 0.00 0.14 0.14 97 1006.5
20260505181303 59 120 2.0 4.0 0.00 0.14 0.14 97 1006.5
20260505181217 59 117 2.0 4.0 0.00 0.14 0.14 97 1006.3
20260505181117 59 118 2.0 3.0 0.00 0.14 0.14 97 1006.4
20260505180904 59 106 2.0 3.0 0.00 0.14 0.14 97 1006.5
20260505180803 59 99 1.0 3.0 0.00 0.14 0.14 97 1006.3
20260505180704 59 88 1.0 3.0 0.00 0.14 0.14 97 1006.5
20260505180603 59 72 1.0 3.0 0.00 0.14 0.14 97 1006.5
20260505180503 59 45 1.0 3.0 0.00 0.14 0.14 97 1006.5
20260505180405 59 17 1.0 3.0 0.00 0.14 0.14 97 1006.5
20260505180305 59 351 1.0 2.0 0.00 0.14 0.14 97 1006.4
20260505180204 59 338 1.0 2.0 0.00 0.14 0.14 97 1006.4
20260505180104 59 327 1.0 2.0 0.00 0.14 0.14 97 1006.5
20260505180004 59 324 1.0 3.0 0.00 0.14 0.14 97 1006.5
20260505175904 59 321 1.0 3.0 0.00 0.14 0.14 97 1006.5